Time,TemperatureF,DewpointF,PressureIn,WindDirection,WindDirectionDegrees,WindSpeedMPH,WindSpeedGustMPH,Humidity,HourlyPrecipIn,Conditions,Clouds,dailyrainin,SoftwareType,DateUTC
2013-08-18 00:02:00,59.9,50.1,30.05,East,83,0.0,0.0,70,0.00,,FEW100,0.00,VWS V14.01,2013-08-18 05:02:00,
2013-08-18 00:03:00,59.9,50.1,30.05,East,83,0.0,0.0,70,0.00,,FEW100,0.00,VWS V14.01,2013-08-18 05:03:00,
2013-08-18 00:04:00,59.9,50.1,30.05,East,83,0.0,0.0,70,0.00,,FEW100,0.00,VWS V14.01,2013-08-18 05:04:00,
2013-08-18 00:07:00,59.7,49.9,30.05,East,83,0.0,0.0,70,0.00,,FEW100,0.00,VWS V14.01,2013-08-18 05:07:00,
2013-08-18 00:08:00,59.7,49.9,30.05,East,83,0.0,0.0,70,0.00,,FEW100,0.00,VWS V14.01,2013-08-18 05:08:00,
2013-08-18 00:09:00,59.7,49.9,30.05,East,83,0.0,0.0,70,0.00,,FEW100,0.00,VWS V14.01,2013-08-18 05:09:00,
2013-08-18 00:12:00,59.5,49.8,30.05,East,83,0.0,0.0,70,0.00,,FEW100,0.00,VWS V14.01,2013-08-18 05:12:00,
2013-08-18 00:13:00,59.5,49.8,30.05,East,83,0.0,0.0,70,0.00,,FEW100,0.00,VWS V14.01,2013-08-18 05:13:00,
2013-08-18 00:14:00,59.5,49.8,30.05,East,83,0.0,0.0,70,0.00,,FEW100,0.00,VWS V14.01,2013-08-18 05:14:00,
2013-08-18 00:18:00,59.4,49.6,30.05,East,83,0.0,0.0,70,0.00,,FEW100,0.00,VWS V14.01,2013-08-18 05:18:00,
2013-08-18 00:19:00,59.4,49.6,30.05,East,83,0.0,0.0,70,0.00,,FEW100,0.00,VWS V14.01,2013-08-18 05:19:00,
2013-08-18 00:23:00,59.2,49.4,30.05,East,83,0.0,0.0,70,0.00,,FEW100,0.00,VWS V14.01,2013-08-18 05:23:00,
2013-08-18 00:24:00,59.2,49.4,30.05,East,83,0.0,0.0,70,0.00,,FEW100,0.00,VWS V14.01,2013-08-18 05:24:00,
2013-08-18 00:25:00,59.2,49.4,30.05,East,83,0.0,0.0,70,0.00,,FEW100,0.00,VWS V14.01,2013-08-18 05:25:00,
2013-08-18 00:27:00,59.2,49.4,30.08,East,83,0.0,0.0,70,0.00,,FEW100,0.00,VWS V14.01,2013-08-18 05:27:00,
2013-08-18 00:28:00,59.2,49.4,30.08,East,83,0.0,0.0,70,0.00,,FEW100,0.00,VWS V14.01,2013-08-18 05:28:00,
2013-08-18 00:29:00,59.2,49.4,30.08,East,83,0.0,0.0,70,0.00,,FEW100,0.00,VWS V14.01,2013-08-18 05:29:00,
2013-08-18 00:30:00,59.2,49.4,30.08,East,83,0.0,0.0,70,0.00,,FEW100,0.00,VWS V14.01,2013-08-18 05:30:00,
2013-08-18 00:31:00,59.4,49.6,30.08,East,83,0.0,0.0,70,0.00,,FEW100,0.00,VWS V14.01,2013-08-18 05:31:00,
2013-08-18 00:33:00,59.4,49.6,30.08,East,83,0.0,0.0,70,0.00,,FEW100,0.00,VWS V14.01,2013-08-18 05:33:00,
2013-08-18 00:34:00,59.4,50.3,30.08,East,83,0.0,0.0,72,0.00,,FEW100,0.00,VWS V14.01,2013-08-18 05:34:00,
2013-08-18 00:35:00,59.4,50.3,30.08,East,83,0.0,0.0,72,0.00,,FEW100,0.00,VWS V14.01,2013-08-18 05:35:00,
2013-08-18 00:36:00,59.4,50.3,30.08,East,83,0.0,0.0,72,0.00,,FEW100,0.00,VWS V14.01,2013-08-18 05:36:00,
2013-08-18 00:38:00,59.5,50.5,30.08,East,83,0.0,0.0,72,0.00,,FEW100,0.00,VWS V14.01,2013-08-18 05:38:00,
2013-08-18 00:39:00,59.5,50.5,30.08,East,83,0.0,0.0,72,0.00,,FEW100,0.00,VWS V14.01,2013-08-18 05:39:00,
2013-08-18 00:40:00,59.5,50.5,30.08,East,83,0.0,0.0,72,0.00,,FEW100,0.00,VWS V14.01,2013-08-18 05:40:00,
2013-08-18 00:41:00,59.5,50.5,30.08,East,83,0.0,0.0,72,0.00,,FEW100,0.00,VWS V14.01,2013-08-18 05:41:00,
2013-08-18 00:44:00,59.7,50.7,30.05,East,83,0.0,0.0,72,0.00,,FEW100,0.00,VWS V14.01,2013-08-18 05:44:00,
2013-08-18 00:45:00,59.7,50.7,30.05,East,83,0.0,0.0,72,0.00,,FEW100,0.00,VWS V14.01,2013-08-18 05:45:00,
2013-08-18 00:47:00,59.9,50.9,30.05,East,83,0.0,0.0,72,0.00,,FEW100,0.00,VWS V14.01,2013-08-18 05:47:00,
2013-08-18 00:48:00,59.7,50.7,30.05,East,83,0.0,0.0,72,0.00,,FEW100,0.00,VWS V14.01,2013-08-18 05:48:00,
2013-08-18 00:49:00,59.7,50.7,30.05,East,83,0.0,0.0,72,0.00,,FEW100,0.00,VWS V14.01,2013-08-18 05:49:00,
2013-08-18 00:50:00,59.7,50.7,30.05,East,83,0.0,0.0,72,0.00,,FEW100,0.00,VWS V14.01,2013-08-18 05:50:00,
2013-08-18 00:52:00,59.7,50.7,30.05,East,83,0.0,0.0,72,0.00,,FEW100,0.00,VWS V14.01,2013-08-18 05:52:00,
2013-08-18 00:53:00,59.7,50.7,30.05,East,83,0.0,0.0,72,0.00,,FEW100,0.00,VWS V14.01,2013-08-18 05:53:00,
2013-08-18 00:55:00,59.5,50.5,30.05,East,83,0.0,0.0,72,0.00,,FEW100,0.00,VWS V14.01,2013-08-18 05:55:00,
2013-08-18 00:56:00,59.5,50.5,30.05,East,83,0.0,0.0,72,0.00,,FEW100,0.00,VWS V14.01,2013-08-18 05:56:00,
2013-08-18 00:58:00,59.4,50.3,30.05,East,83,0.0,0.0,72,0.00,,FEW100,0.00,VWS V14.01,2013-08-18 05:58:00,
2013-08-18 01:00:00,59.2,50.2,30.05,East,83,0.0,0.0,72,0.00,,FEW100,0.00,VWS V14.01,2013-08-18 06:00:00,
2013-08-18 01:01:00,59.2,50.2,30.05,East,83,0.0,0.0,72,0.00,,FEW100,0.00,VWS V14.01,2013-08-18 06:01:00,
2013-08-18 01:03:00,59.2,50.2,30.05,East,83,0.0,0.0,72,0.00,,FEW100,0.00,VWS V14.01,2013-08-18 06:03:00,
2013-08-18 01:04:00,59.2,50.9,30.05,East,83,0.0,0.0,74,0.00,,FEW100,0.00,VWS V14.01,2013-08-18 06:04:00,
2013-08-18 01:05:00,59.2,50.9,30.05,East,83,0.0,0.0,74,0.00,,FEW100,0.00,VWS V14.01,2013-08-18 06:05:00,
2013-08-18 01:07:00,59.2,50.9,30.05,East,83,0.0,0.0,74,0.00,,FEW100,0.00,VWS V14.01,2013-08-18 06:07:00,
2013-08-18 01:09:00,59.4,51.1,30.05,East,83,0.0,0.0,74,0.00,,FEW100,0.00,VWS V14.01,2013-08-18 06:09:00,
2013-08-18 01:10:00,59.4,51.1,30.05,East,83,0.0,0.0,74,0.00,,FEW100,0.00,VWS V14.01,2013-08-18 06:10:00,
2013-08-18 01:11:00,59.4,51.1,30.05,East,83,0.0,0.0,74,0.00,,FEW100,0.00,VWS V14.01,2013-08-18 06:11:00,
2013-08-18 01:12:00,59.4,51.1,30.05,East,83,0.0,0.0,74,0.00,,FEW100,0.00,VWS V14.01,2013-08-18 06:12:00,
2013-08-18 01:14:00,59.4,51.1,30.05,East,83,0.0,0.0,74,0.00,,FEW100,0.00,VWS V14.01,2013-08-18 06:14:00,
2013-08-18 01:15:00,59.4,51.1,30.05,East,83,0.0,0.0,74,0.00,,FEW100,0.00,VWS V14.01,2013-08-18 06:15:00,
2013-08-18 01:16:00,59.4,51.1,30.05,East,83,0.0,0.0,74,0.00,,FEW100,0.00,VWS V14.01,2013-08-18 06:16:00,
2013-08-18 01:18:00,59.4,51.1,30.05,East,83,0.0,0.0,74,0.00,,FEW100,0.00,VWS V14.01,2013-08-18 06:18:00,
2013-08-18 01:19:00,59.4,51.1,30.05,East,83,0.0,0.0,74,0.00,,FEW100,0.00,VWS V14.01,2013-08-18 06:19:00,
2013-08-18 01:21:00,59.4,51.1,30.05,East,83,0.0,0.0,74,0.00,,FEW100,0.00,VWS V14.01,2013-08-18 06:21:00,
2013-08-18 01:22:00,59.4,51.1,30.05,East,83,0.0,0.0,74,0.00,,FEW100,0.00,VWS V14.01,2013-08-18 06:22:00,
2013-08-18 01:23:00,59.4,51.1,30.05,East,83,0.0,0.0,74,0.00,,FEW100,0.00,VWS V14.01,2013-08-18 06:23:00,
2013-08-18 01:25:00,59.5,52.0,30.05,East,83,0.0,0.0,76,0.00,,FEW100,0.00,VWS V14.01,2013-08-18 06:25:00,
2013-08-18 01:26:00,59.5,52.0,30.05,East,83,0.0,0.0,76,0.00,,FEW100,0.00,VWS V14.01,2013-08-18 06:26:00,
2013-08-18 01:27:00,59.7,52.2,30.08,East,83,0.0,0.0,76,0.00,,FEW100,0.00,VWS V14.01,2013-08-18 06:27:00,
2013-08-18 01:28:00,59.7,52.2,30.08,East,83,0.0,0.0,76,0.00,,FEW100,0.00,VWS V14.01,2013-08-18 06:28:00,
2013-08-18 01:30:00,59.7,52.2,30.08,East,83,0.0,0.0,76,0.00,,FEW100,0.00,VWS V14.01,2013-08-18 06:30:00,
2013-08-18 01:33:00,59.7,52.2,30.08,East,83,0.0,0.0,76,0.00,,FEW100,0.00,VWS V14.01,2013-08-18 06:33:00,
2013-08-18 01:35:00,59.7,52.2,30.08,East,83,0.0,0.0,76,0.00,,FEW100,0.00,VWS V14.01,2013-08-18 06:35:00,
2013-08-18 01:38:00,59.5,52.0,30.08,East,83,0.0,0.0,76,0.00,,FEW100,0.00,VWS V14.01,2013-08-18 06:38:00,
2013-08-18 01:39:00,59.5,52.0,30.08,East,83,0.0,0.0,76,0.00,,FEW100,0.00,VWS V14.01,2013-08-18 06:39:00,
2013-08-18 01:40:00,59.5,52.0,30.08,East,83,0.0,0.0,76,0.00,,FEW100,0.00,VWS V14.01,2013-08-18 06:40:00,
2013-08-18 01:43:00,59.2,50.9,30.08,East,83,0.0,0.0,74,0.00,,FEW100,0.00,VWS V14.01,2013-08-18 06:43:00,
2013-08-18 01:44:00,59.2,50.9,30.08,East,83,0.0,0.0,74,0.00,,FEW100,0.00,VWS V14.01,2013-08-18 06:44:00,
2013-08-18 01:45:00,59.0,50.7,30.08,East,83,0.0,0.0,74,0.00,,FEW100,0.00,VWS V14.01,2013-08-18 06:45:00,
2013-08-18 01:46:00,59.0,50.7,30.08,East,83,0.0,0.0,74,0.00,,FEW100,0.00,VWS V14.01,2013-08-18 06:46:00,
2013-08-18 01:49:00,58.8,51.3,30.08,East,83,0.0,0.0,76,0.00,,FEW100,0.00,VWS V14.01,2013-08-18 06:49:00,
2013-08-18 01:50:00,58.8,51.3,30.08,East,83,0.0,0.0,76,0.00,,FEW100,0.00,VWS V14.01,2013-08-18 06:50:00,
2013-08-18 01:51:00,58.8,51.3,30.08,East,83,0.0,0.0,76,0.00,,FEW100,0.00,VWS V14.01,2013-08-18 06:51:00,
2013-08-18 01:53:00,58.8,51.3,30.08,East,83,0.0,0.0,76,0.00,,FEW100,0.00,VWS V14.01,2013-08-18 06:53:00,
2013-08-18 01:54:00,58.8,51.3,30.08,East,83,0.0,0.0,76,0.00,,FEW100,0.00,VWS V14.01,2013-08-18 06:54:00,
2013-08-18 01:55:00,58.8,51.3,30.08,East,83,0.0,0.0,76,0.00,,FEW100,0.00,VWS V14.01,2013-08-18 06:55:00,
2013-08-18 01:56:00,58.8,51.3,30.08,East,83,0.0,0.0,76,0.00,,FEW100,0.00,VWS V14.01,2013-08-18 06:56:00,
2013-08-18 01:57:00,58.8,51.3,30.08,East,83,0.0,0.0,76,0.00,,FEW100,0.00,VWS V14.01,2013-08-18 06:57:00,
2013-08-18 01:59:00,58.6,51.1,30.08,East,83,0.0,0.0,76,0.00,,FEW100,0.00,VWS V14.01,2013-08-18 06:59:00,
2013-08-18 02:00:00,58.6,51.1,30.08,East,83,0.0,0.0,76,0.00,,FEW100,0.00,VWS V14.01,2013-08-18 07:00:00,
2013-08-18 02:01:00,58.6,51.8,30.08,East,83,0.0,0.0,78,0.00,,FEW100,0.00,VWS V14.01,2013-08-18 07:01:00,
2013-08-18 02:02:00,58.6,51.8,30.08,East,83,0.0,0.0,78,0.00,,FEW100,0.00,VWS V14.01,2013-08-18 07:02:00,
2013-08-18 02:04:00,58.6,51.1,30.08,East,83,0.0,0.0,76,0.00,,FEW100,0.00,VWS V14.01,2013-08-18 07:04:00,
2013-08-18 02:05:00,58.6,51.1,30.08,East,83,0.0,0.0,76,0.00,,FEW100,0.00,VWS V14.01,2013-08-18 07:05:00,
2013-08-18 02:06:00,58.6,51.1,30.08,East,83,0.0,0.0,76,0.00,,FEW100,0.00,VWS V14.01,2013-08-18 07:06:00,
2013-08-18 02:07:00,58.6,51.1,30.08,East,83,0.0,0.0,76,0.00,,FEW100,0.00,VWS V14.01,2013-08-18 07:07:00,
2013-08-18 02:08:00,58.5,50.9,30.08,East,83,0.0,0.0,76,0.00,,FEW100,0.00,VWS V14.01,2013-08-18 07:08:00,
2013-08-18 02:10:00,58.3,50.8,30.08,East,83,0.0,0.0,76,0.00,,FEW100,0.00,VWS V14.01,2013-08-18 07:10:00,
2013-08-18 02:11:00,58.3,50.8,30.08,East,83,0.0,0.0,76,0.00,,FEW100,0.00,VWS V14.01,2013-08-18 07:11:00,
2013-08-18 02:12:00,58.3,50.8,30.08,East,83,0.0,0.0,76,0.00,,FEW100,0.00,VWS V14.01,2013-08-18 07:12:00,
2013-08-18 02:13:00,58.3,50.8,30.08,East,83,0.0,0.0,76,0.00,,FEW100,0.00,VWS V14.01,2013-08-18 07:13:00,
2013-08-18 02:14:00,58.3,50.8,30.08,East,83,0.0,0.0,76,0.00,,FEW100,0.00,VWS V14.01,2013-08-18 07:14:00,
2013-08-18 02:16:00,58.1,51.3,30.08,East,83,0.0,0.0,78,0.00,,FEW100,0.00,VWS V14.01,2013-08-18 07:16:00,
2013-08-18 02:18:00,58.1,51.3,30.08,East,83,0.0,0.0,78,0.00,,FEW100,0.00,VWS V14.01,2013-08-18 07:18:00,
2013-08-18 02:19:00,58.1,51.3,30.08,East,83,0.0,0.0,78,0.00,,FEW100,0.00,VWS V14.01,2013-08-18 07:19:00,
2013-08-18 02:23:00,58.3,52.8,30.08,East,83,0.0,0.0,82,0.00,,FEW100,0.00,VWS V14.01,2013-08-18 07:23:00,
2013-08-18 02:25:00,58.3,52.8,30.08,East,83,0.0,0.0,82,0.00,,FEW100,0.00,VWS V14.01,2013-08-18 07:25:00,
2013-08-18 02:28:00,58.3,53.5,30.08,East,83,0.0,0.0,84,0.00,,FEW100,0.00,VWS V14.01,2013-08-18 07:28:00,
2013-08-18 02:29:00,58.3,53.5,30.08,East,83,0.0,0.0,84,0.00,,FEW100,0.00,VWS V14.01,2013-08-18 07:29:00,
2013-08-18 02:30:00,58.3,54.1,30.08,East,83,0.0,0.0,86,0.00,,FEW100,0.00,VWS V14.01,2013-08-18 07:30:00,
2013-08-18 02:33:00,58.5,54.9,30.08,East,83,0.0,0.0,88,0.00,,FEW100,0.00,VWS V14.01,2013-08-18 07:33:00,
2013-08-18 02:34:00,58.5,54.9,30.08,East,83,0.0,0.0,88,0.00,,FEW100,0.00,VWS V14.01,2013-08-18 07:34:00,
2013-08-18 02:35:00,58.6,55.1,30.08,East,83,0.0,0.0,88,0.00,,FEW100,0.00,VWS V14.01,2013-08-18 07:35:00,
2013-08-18 02:38:00,58.6,55.1,30.08,East,83,0.0,0.0,88,0.00,,FEW100,0.00,VWS V14.01,2013-08-18 07:38:00,
2013-08-18 02:39:00,58.6,55.1,30.08,East,83,0.0,0.0,88,0.00,,FEW100,0.00,VWS V14.01,2013-08-18 07:39:00,
2013-08-18 02:40:00,58.6,55.1,30.08,East,83,0.0,0.0,88,0.00,,FEW100,0.00,VWS V14.01,2013-08-18 07:40:00,
2013-08-18 02:41:00,58.8,54.7,30.08,East,83,0.0,0.0,86,0.00,,FEW100,0.00,VWS V14.01,2013-08-18 07:41:00,
2013-08-18 02:42:00,58.8,54.7,30.08,East,83,0.0,0.0,86,0.00,,FEW100,0.00,VWS V14.01,2013-08-18 07:42:00,
2013-08-18 02:44:00,58.8,54.7,30.08,East,83,0.0,0.0,86,0.00,,FEW100,0.00,VWS V14.01,2013-08-18 07:44:00,
2013-08-18 02:45:00,58.8,54.7,30.08,East,83,0.0,0.0,86,0.00,,FEW100,0.00,VWS V14.01,2013-08-18 07:45:00,
2013-08-18 02:46:00,58.8,54.7,30.08,East,83,0.0,0.0,86,0.00,,FEW100,0.00,VWS V14.01,2013-08-18 07:46:00,
2013-08-18 02:48:00,58.8,54.7,30.08,East,83,0.0,0.0,86,0.00,,FEW100,0.00,VWS V14.01,2013-08-18 07:48:00,
2013-08-18 02:50:00,58.8,54.7,30.08,East,83,0.0,0.0,86,0.00,,FEW100,0.00,VWS V14.01,2013-08-18 07:50:00,
2013-08-18 02:51:00,58.8,54.7,30.08,East,83,0.0,0.0,86,0.00,,FEW100,0.00,VWS V14.01,2013-08-18 07:51:00,
2013-08-18 02:53:00,58.8,54.7,30.08,East,83,0.0,0.0,86,0.00,,FEW100,0.00,VWS V14.01,2013-08-18 07:53:00,
2013-08-18 02:56:00,58.8,54.7,30.08,East,83,0.0,0.0,86,0.00,,FEW100,0.00,VWS V14.01,2013-08-18 07:56:00,
2013-08-18 02:57:00,58.8,54.7,30.08,East,83,0.0,0.0,86,0.00,,FEW100,0.00,VWS V14.01,2013-08-18 07:57:00,
2013-08-18 02:58:00,58.8,54.7,30.08,East,83,0.0,0.0,86,0.00,,FEW100,0.00,VWS V14.01,2013-08-18 07:58:00,
2013-08-18 03:01:00,58.8,54.7,30.08,East,83,0.0,0.0,86,0.00,,FEW100,0.00,VWS V14.01,2013-08-18 08:01:00,
2013-08-18 03:02:00,58.8,54.7,30.08,East,83,0.0,0.0,86,0.00,,FEW100,0.00,VWS V14.01,2013-08-18 08:02:00,
2013-08-18 03:03:00,58.8,54.7,30.08,East,83,0.0,0.0,86,0.00,,FEW100,0.00,VWS V14.01,2013-08-18 08:03:00,
2013-08-18 03:06:00,58.8,54.7,30.08,East,83,0.0,0.0,86,0.00,,FEW100,0.00,VWS V14.01,2013-08-18 08:06:00,
2013-08-18 03:07:00,58.8,54.7,30.08,East,83,0.0,0.0,86,0.00,,FEW100,0.00,VWS V14.01,2013-08-18 08:07:00,
2013-08-18 03:08:00,58.8,54.7,30.08,East,83,0.0,0.0,86,0.00,,FEW100,0.00,VWS V14.01,2013-08-18 08:08:00,
2013-08-18 03:12:00,57.6,52.8,30.08,East,83,0.0,0.0,84,0.00,,FEW100,0.00,VWS V14.01,2013-08-18 08:12:00,
2013-08-18 03:13:00,57.7,53.0,30.08,East,83,0.0,0.0,84,0.00,,FEW100,0.00,VWS V14.01,2013-08-18 08:13:00,
2013-08-18 03:14:00,57.7,53.0,30.08,East,83,0.0,0.0,84,0.00,,FEW100,0.00,VWS V14.01,2013-08-18 08:14:00,
2013-08-18 03:15:00,57.7,53.0,30.08,East,83,0.0,0.0,84,0.00,,FEW100,0.00,VWS V14.01,2013-08-18 08:15:00,
2013-08-18 03:18:00,57.6,52.8,30.08,East,83,0.0,0.0,84,0.00,,FEW100,0.00,VWS V14.01,2013-08-18 08:18:00,
2013-08-18 03:19:00,57.6,52.8,30.08,East,83,0.0,0.0,84,0.00,,FEW100,0.00,VWS V14.01,2013-08-18 08:19:00,
2013-08-18 03:20:00,57.6,52.8,30.08,East,83,0.0,0.0,84,0.00,,FEW100,0.00,VWS V14.01,2013-08-18 08:20:00,
2013-08-18 03:21:00,57.6,52.8,30.08,East,83,0.0,0.0,84,0.00,,FEW100,0.00,VWS V14.01,2013-08-18 08:21:00,
2013-08-18 03:24:00,57.6,52.8,30.08,East,83,0.0,0.0,84,0.00,,FEW100,0.00,VWS V14.01,2013-08-18 08:24:00,
2013-08-18 03:25:00,57.4,52.6,30.08,East,83,0.0,0.0,84,0.00,,FEW100,0.00,VWS V14.01,2013-08-18 08:25:00,
2013-08-18 03:26:00,57.4,52.6,30.08,East,83,0.0,0.0,84,0.00,,FEW100,0.00,VWS V14.01,2013-08-18 08:26:00,
2013-08-18 03:27:00,57.2,52.4,30.08,East,83,0.0,0.0,84,0.00,,FEW100,0.00,VWS V14.01,2013-08-18 08:27:00,
2013-08-18 03:29:00,57.2,52.4,30.08,East,83,0.0,0.0,84,0.00,,FEW100,0.00,VWS V14.01,2013-08-18 08:29:00,
2013-08-18 03:30:00,57.2,52.4,30.08,East,83,0.0,0.0,84,0.00,,FEW100,0.00,VWS V14.01,2013-08-18 08:30:00,
2013-08-18 03:31:00,57.2,53.1,30.08,East,83,0.0,0.0,86,0.00,,FEW100,0.00,VWS V14.01,2013-08-18 08:31:00,
2013-08-18 03:32:00,57.2,53.1,30.08,East,83,0.0,0.0,86,0.00,,FEW100,0.00,VWS V14.01,2013-08-18 08:32:00,
2013-08-18 03:34:00,57.2,53.1,30.08,East,83,0.0,0.0,86,0.00,,FEW100,0.00,VWS V14.01,2013-08-18 08:34:00,
2013-08-18 03:35:00,57.2,53.1,30.08,East,83,0.0,0.0,86,0.00,,FEW100,0.00,VWS V14.01,2013-08-18 08:35:00,
2013-08-18 03:37:00,57.4,53.9,30.08,East,83,0.0,0.0,88,0.00,,FEW100,0.00,VWS V14.01,2013-08-18 08:37:00,
2013-08-18 03:38:00,57.6,54.0,30.08,East,83,0.0,0.0,88,0.00,,FEW100,0.00,VWS V14.01,2013-08-18 08:38:00,
2013-08-18 03:40:00,57.7,54.8,30.08,East,83,0.0,0.0,90,0.00,,FEW100,0.00,VWS V14.01,2013-08-18 08:40:00,
2013-08-18 03:41:00,57.7,54.8,30.08,East,83,0.0,0.0,90,0.00,,FEW100,0.00,VWS V14.01,2013-08-18 08:41:00,
2013-08-18 03:42:00,57.7,54.8,30.08,East,83,0.0,0.0,90,0.00,,FEW100,0.00,VWS V14.01,2013-08-18 08:42:00,
2013-08-18 03:43:00,57.7,54.8,30.08,East,83,0.0,0.0,90,0.00,,FEW100,0.00,VWS V14.01,2013-08-18 08:43:00,
2013-08-18 03:45:00,57.9,55.0,30.08,East,83,0.0,0.0,90,0.00,,FEW100,0.00,VWS V14.01,2013-08-18 08:45:00,
2013-08-18 03:46:00,57.9,55.0,30.08,East,83,0.0,0.0,90,0.00,,FEW100,0.00,VWS V14.01,2013-08-18 08:46:00,
2013-08-18 03:48:00,58.1,55.2,30.08,East,83,0.0,0.0,90,0.00,,FEW100,0.00,VWS V14.01,2013-08-18 08:48:00,
2013-08-18 03:49:00,58.1,55.2,30.08,East,83,0.0,0.0,90,0.00,,FEW100,0.00,VWS V14.01,2013-08-18 08:49:00,
2013-08-18 03:50:00,58.1,55.2,30.08,East,83,0.0,0.0,90,0.00,,FEW100,0.00,VWS V14.01,2013-08-18 08:50:00,
2013-08-18 03:51:00,58.1,55.2,30.08,East,83,0.0,0.0,90,0.00,,FEW100,0.00,VWS V14.01,2013-08-18 08:51:00,
2013-08-18 03:52:00,58.1,55.2,30.08,East,83,0.0,0.0,90,0.00,,FEW100,0.00,VWS V14.01,2013-08-18 08:52:00,
2013-08-18 03:54:00,58.1,55.2,30.08,East,83,0.0,0.0,90,0.00,,FEW100,0.00,VWS V14.01,2013-08-18 08:54:00,
2013-08-18 03:55:00,58.1,55.2,30.08,East,83,0.0,0.0,90,0.00,,FEW100,0.00,VWS V14.01,2013-08-18 08:55:00,
2013-08-18 03:56:00,58.1,55.2,30.08,East,83,0.0,0.0,90,0.00,,FEW100,0.00,VWS V14.01,2013-08-18 08:56:00,
2013-08-18 03:58:00,58.1,55.2,30.08,East,83,0.0,0.0,90,0.00,,FEW100,0.00,VWS V14.01,2013-08-18 08:58:00,
2013-08-18 03:59:00,57.9,55.0,30.08,East,83,0.0,0.0,90,0.00,,FEW100,0.00,VWS V14.01,2013-08-18 08:59:00,
2013-08-18 04:02:00,57.7,54.8,30.08,East,83,0.0,0.0,90,0.00,,FEW100,0.00,VWS V14.01,2013-08-18 09:02:00,
2013-08-18 04:03:00,57.7,54.8,30.08,East,83,0.0,0.0,90,0.00,,FEW100,0.00,VWS V14.01,2013-08-18 09:03:00,
2013-08-18 04:04:00,57.9,55.0,30.08,East,83,0.0,0.0,90,0.00,,FEW100,0.00,VWS V14.01,2013-08-18 09:04:00,
2013-08-18 04:05:00,57.9,55.0,30.08,East,83,0.0,0.0,90,0.00,,FEW100,0.00,VWS V14.01,2013-08-18 09:05:00,
2013-08-18 04:07:00,57.9,55.0,30.08,East,83,0.0,0.0,90,0.00,,FEW100,0.00,VWS V14.01,2013-08-18 09:07:00,
2013-08-18 04:08:00,57.9,55.0,30.08,East,83,0.0,0.0,90,0.00,,FEW100,0.00,VWS V14.01,2013-08-18 09:08:00,
2013-08-18 04:09:00,57.7,54.8,30.08,East,83,0.0,0.0,90,0.00,,FEW100,0.00,VWS V14.01,2013-08-18 09:09:00,
2013-08-18 04:10:00,57.6,54.7,30.08,East,83,0.0,0.0,90,0.00,,FEW100,0.00,VWS V14.01,2013-08-18 09:10:00,
2013-08-18 04:11:00,57.6,54.7,30.08,East,83,0.0,0.0,90,0.00,,FEW100,0.00,VWS V14.01,2013-08-18 09:11:00,
2013-08-18 04:12:00,57.6,54.7,30.08,East,83,0.0,0.0,90,0.00,,FEW100,0.00,VWS V14.01,2013-08-18 09:12:00,
2013-08-18 04:13:00,57.6,54.7,30.08,East,83,0.0,0.0,90,0.00,,FEW100,0.00,VWS V14.01,2013-08-18 09:13:00,
2013-08-18 04:16:00,57.7,54.8,30.08,ENE,72,2.7,2.7,90,0.00,,FEW100,0.00,VWS V14.01,2013-08-18 09:16:00,
2013-08-18 04:18:00,57.9,55.0,30.08,ENE,66,2.7,2.7,90,0.00,,FEW100,0.00,VWS V14.01,2013-08-18 09:18:00,
2013-08-18 04:19:00,57.9,55.6,30.08,ENE,66,0.0,0.0,92,0.00,,FEW100,0.00,VWS V14.01,2013-08-18 09:19:00,
2013-08-18 04:21:00,57.9,55.6,30.08,ENE,66,0.0,0.0,92,0.00,,FEW100,0.00,VWS V14.01,2013-08-18 09:21:00,
2013-08-18 04:23:00,58.1,55.8,30.08,ENE,66,0.0,0.0,92,0.00,,FEW100,0.00,VWS V14.01,2013-08-18 09:23:00,
2013-08-18 04:25:00,58.1,55.8,30.08,ENE,66,0.0,0.0,92,0.00,,FEW100,0.00,VWS V14.01,2013-08-18 09:25:00,
2013-08-18 04:27:00,58.1,55.8,30.08,ENE,66,0.0,0.0,92,0.00,,FEW100,0.00,VWS V14.01,2013-08-18 09:27:00,
2013-08-18 04:28:00,58.1,55.8,30.08,ENE,66,0.0,0.0,92,0.00,,FEW100,0.00,VWS V14.01,2013-08-18 09:28:00,
2013-08-18 04:30:00,58.1,55.8,30.08,ENE,66,0.0,0.0,92,0.00,,FEW100,0.00,VWS V14.01,2013-08-18 09:30:00,
2013-08-18 04:31:00,57.6,54.7,30.08,ENE,66,0.0,0.0,90,0.00,,FEW100,0.00,VWS V14.01,2013-08-18 09:31:00,
2013-08-18 04:32:00,57.6,54.7,30.08,ENE,66,0.0,0.0,90,0.00,,FEW100,0.00,VWS V14.01,2013-08-18 09:32:00,
2013-08-18 04:33:00,57.6,54.7,30.08,ENE,66,0.0,0.0,90,0.00,,FEW100,0.00,VWS V14.01,2013-08-18 09:33:00,
2013-08-18 04:36:00,57.6,54.7,30.08,ENE,66,0.0,0.0,90,0.00,,FEW100,0.00,VWS V14.01,2013-08-18 09:36:00,
2013-08-18 04:37:00,57.6,54.7,30.08,ENE,66,0.0,0.0,90,0.00,,FEW100,0.00,VWS V14.01,2013-08-18 09:37:00,
2013-08-18 04:38:00,57.6,54.7,30.08,ENE,66,0.0,0.0,90,0.00,,FEW100,0.00,VWS V14.01,2013-08-18 09:38:00,
2013-08-18 04:41:00,57.6,54.7,30.08,ENE,66,0.0,0.0,90,0.00,,FEW100,0.00,VWS V14.01,2013-08-18 09:41:00,
2013-08-18 04:43:00,57.6,54.7,30.08,ENE,66,0.0,0.0,90,0.00,,FEW100,0.00,VWS V14.01,2013-08-18 09:43:00,
2013-08-18 04:44:00,57.6,54.7,30.08,ENE,66,0.0,0.0,90,0.00,,FEW100,0.00,VWS V14.01,2013-08-18 09:44:00,
2013-08-18 04:46:00,57.0,54.7,30.08,ENE,66,0.0,0.0,92,0.00,,FEW100,0.00,VWS V14.01,2013-08-18 09:46:00,
2013-08-18 04:47:00,57.0,54.7,30.08,ENE,66,0.0,0.0,92,0.00,,FEW100,0.00,VWS V14.01,2013-08-18 09:47:00,
2013-08-18 04:48:00,57.0,54.7,30.08,ENE,66,0.0,0.0,92,0.00,,FEW100,0.00,VWS V14.01,2013-08-18 09:48:00,
2013-08-18 04:49:00,57.0,54.7,30.08,ENE,66,0.0,0.0,92,0.00,,FEW100,0.00,VWS V14.01,2013-08-18 09:49:00,
2013-08-18 04:52:00,57.0,54.7,30.08,ENE,66,0.0,0.0,92,0.00,,FEW100,0.00,VWS V14.01,2013-08-18 09:52:00,
2013-08-18 04:54:00,57.0,54.7,30.08,ENE,66,0.0,0.0,92,0.00,,FEW100,0.00,VWS V14.01,2013-08-18 09:54:00,
2013-08-18 04:55:00,57.0,54.1,30.08,ENE,66,0.0,0.0,90,0.00,,FEW100,0.00,VWS V14.01,2013-08-18 09:55:00,
2013-08-18 04:57:00,56.8,53.9,30.08,ENE,65,0.0,0.0,90,0.00,,FEW100,0.00,VWS V14.01,2013-08-18 09:57:00,
2013-08-18 04:59:00,56.7,53.8,30.08,ENE,66,0.0,0.0,90,0.00,,FEW100,0.00,VWS V14.01,2013-08-18 09:59:00,
2013-08-18 05:00:00,56.7,53.8,30.08,ENE,66,0.0,0.0,90,0.00,,FEW100,0.00,VWS V14.01,2013-08-18 10:00:00,
2013-08-18 05:02:00,56.5,53.6,30.08,ENE,66,0.0,0.0,90,0.00,,FEW100,0.00,VWS V14.01,2013-08-18 10:02:00,
2013-08-18 05:05:00,56.3,53.4,30.08,ENE,66,0.0,0.0,90,0.00,,FEW100,0.00,VWS V14.01,2013-08-18 10:05:00,
2013-08-18 05:06:00,56.3,53.4,30.08,ENE,66,0.0,0.0,90,0.00,,FEW100,0.00,VWS V14.01,2013-08-18 10:06:00,
2013-08-18 05:08:00,56.3,53.4,30.08,ENE,66,0.0,0.0,90,0.00,,FEW100,0.00,VWS V14.01,2013-08-18 10:08:00,
2013-08-18 05:09:00,56.3,53.4,30.08,ENE,66,0.0,0.0,90,0.00,,FEW100,0.00,VWS V14.01,2013-08-18 10:09:00,
2013-08-18 05:11:00,56.1,53.2,30.08,ENE,66,0.0,0.0,90,0.00,,FEW100,0.00,VWS V14.01,2013-08-18 10:11:00,
2013-08-18 05:12:00,56.1,53.2,30.08,ENE,66,0.0,0.0,90,0.00,,FEW100,0.00,VWS V14.01,2013-08-18 10:12:00,
2013-08-18 05:14:00,56.1,53.2,30.08,ENE,66,0.0,0.0,90,0.00,,FEW100,0.00,VWS V14.01,2013-08-18 10:14:00,
2013-08-18 05:15:00,56.1,53.2,30.08,ENE,66,0.0,0.0,90,0.00,,FEW100,0.00,VWS V14.01,2013-08-18 10:15:00,
2013-08-18 05:16:00,56.1,53.8,30.08,ENE,66,0.0,0.0,92,0.00,,FEW100,0.00,VWS V14.01,2013-08-18 10:16:00,
2013-08-18 05:17:00,56.1,53.8,30.08,ENE,66,0.0,0.0,92,0.00,,FEW100,0.00,VWS V14.01,2013-08-18 10:17:00,
2013-08-18 05:19:00,56.1,53.8,30.08,ENE,66,0.0,0.0,92,0.00,,FEW100,0.00,VWS V14.01,2013-08-18 10:19:00,
2013-08-18 05:20:00,56.3,54.6,30.08,ENE,66,0.0,0.0,94,0.00,,FEW100,0.00,VWS V14.01,2013-08-18 10:20:00,
2013-08-18 05:22:00,56.5,54.8,30.08,ENE,66,0.0,0.0,94,0.00,,FEW100,0.00,VWS V14.01,2013-08-18 10:22:00,
2013-08-18 05:23:00,56.7,55.0,30.08,ENE,66,0.0,0.0,94,0.00,,FEW100,0.00,VWS V14.01,2013-08-18 10:23:00,
2013-08-18 05:25:00,56.7,55.0,30.08,ENE,66,0.0,0.0,94,0.00,,FEW100,0.00,VWS V14.01,2013-08-18 10:25:00,
2013-08-18 05:26:00,56.7,55.0,30.08,ENE,66,0.0,0.0,94,0.00,,FEW100,0.00,VWS V14.01,2013-08-18 10:26:00,
2013-08-18 05:27:00,56.7,54.4,30.08,ENE,66,0.0,0.0,92,0.00,,FEW100,0.00,VWS V14.01,2013-08-18 10:27:00,
2013-08-18 05:28:00,56.7,54.4,30.08,ENE,66,0.0,0.0,92,0.00,,FEW100,0.00,VWS V14.01,2013-08-18 10:28:00,
2013-08-18 05:29:00,56.7,54.4,30.08,ENE,66,0.0,0.0,92,0.00,,FEW100,0.00,VWS V14.01,2013-08-18 10:29:00,
2013-08-18 05:30:00,56.7,54.4,30.08,ENE,66,0.0,0.0,92,0.00,,FEW100,0.00,VWS V14.01,2013-08-18 10:30:00,
2013-08-18 05:32:00,56.5,53.6,30.08,ENE,66,0.0,0.0,90,0.00,,FEW100,0.00,VWS V14.01,2013-08-18 10:32:00,
2013-08-18 05:33:00,56.5,53.6,30.08,ENE,66,0.0,0.0,90,0.00,,FEW100,0.00,VWS V14.01,2013-08-18 10:33:00,
2013-08-18 05:35:00,56.5,54.2,30.08,ENE,66,0.0,0.0,92,0.00,,FEW100,0.00,VWS V14.01,2013-08-18 10:35:00,
2013-08-18 05:36:00,56.5,54.2,30.08,ENE,66,0.0,0.0,92,0.00,,FEW100,0.00,VWS V14.01,2013-08-18 10:36:00,
2013-08-18 05:38:00,56.5,54.2,30.08,ENE,66,0.0,0.0,92,0.00,,FEW100,0.00,VWS V14.01,2013-08-18 10:38:00,
2013-08-18 05:39:00,56.7,55.0,30.08,ENE,66,0.0,0.0,94,0.00,,FEW100,0.00,VWS V14.01,2013-08-18 10:39:00,
2013-08-18 05:42:00,56.7,55.0,30.08,ENE,66,0.0,0.0,94,0.00,,FEW100,0.00,VWS V14.01,2013-08-18 10:42:00,
2013-08-18 05:43:00,56.7,55.0,30.08,ENE,66,0.0,0.0,94,0.00,,FEW100,0.00,VWS V14.01,2013-08-18 10:43:00,
2013-08-18 05:44:00,56.7,55.0,30.08,ENE,66,0.0,0.0,94,0.00,,FEW100,0.00,VWS V14.01,2013-08-18 10:44:00,
2013-08-18 05:47:00,56.7,55.0,30.08,ENE,66,0.0,0.0,94,0.00,,FEW100,0.00,VWS V14.01,2013-08-18 10:47:00,
2013-08-18 05:48:00,56.7,55.0,30.08,ENE,66,0.0,0.0,94,0.00,,FEW100,0.00,VWS V14.01,2013-08-18 10:48:00,
2013-08-18 05:49:00,56.7,55.0,30.08,ENE,66,0.0,0.0,94,0.00,,FEW100,0.00,VWS V14.01,2013-08-18 10:49:00,
2013-08-18 05:53:00,56.5,54.8,30.08,ENE,66,0.0,0.0,94,0.00,,FEW100,0.00,VWS V14.01,2013-08-18 10:53:00,
2013-08-18 05:54:00,56.5,54.8,30.08,ENE,66,0.0,0.0,94,0.00,,FEW100,0.00,VWS V14.01,2013-08-18 10:54:00,
2013-08-18 05:55:00,56.7,55.0,30.08,ENE,66,0.0,0.0,94,0.00,,FEW100,0.00,VWS V14.01,2013-08-18 10:55:00,
2013-08-18 05:58:00,56.7,55.0,30.11,ENE,66,0.0,0.0,94,0.00,,FEW100,0.00,VWS V14.01,2013-08-18 10:58:00,
2013-08-18 06:00:00,56.7,55.0,30.11,ENE,66,0.0,0.0,94,0.00,,FEW100,0.00,VWS V14.01,2013-08-18 11:00:00,
2013-08-18 06:02:00,56.7,55.5,30.11,ENE,66,0.0,0.0,96,0.00,,FEW100,0.00,VWS V14.01,2013-08-18 11:02:00,
2013-08-18 06:05:00,56.7,55.5,30.11,ENE,66,0.0,0.0,96,0.00,,FEW100,0.00,VWS V14.01,2013-08-18 11:05:00,
2013-08-18 06:06:00,56.8,55.7,30.11,ENE,66,0.0,0.0,96,0.00,,FEW100,0.00,VWS V14.01,2013-08-18 11:06:00,
2013-08-18 06:07:00,56.7,55.5,30.11,ENE,66,0.0,0.0,96,0.00,,FEW100,0.00,VWS V14.01,2013-08-18 11:07:00,
2013-08-18 06:10:00,56.8,55.7,30.11,ENE,66,0.0,0.0,96,0.00,,FEW100,0.00,VWS V14.01,2013-08-18 11:10:00,
2013-08-18 06:11:00,56.7,55.5,30.11,ENE,66,0.0,0.0,96,0.00,,FEW100,0.00,VWS V14.01,2013-08-18 11:11:00,
2013-08-18 06:12:00,56.7,55.0,30.11,ENE,66,0.0,0.0,94,0.00,,FEW100,0.00,VWS V14.01,2013-08-18 11:12:00,
2013-08-18 06:13:00,56.7,55.0,30.11,ENE,66,0.0,0.0,94,0.00,,FEW100,0.00,VWS V14.01,2013-08-18 11:13:00,
2013-08-18 06:16:00,56.5,54.2,30.11,ENE,66,0.0,0.0,92,0.00,,FEW100,0.00,VWS V14.01,2013-08-18 11:16:00,
2013-08-18 06:17:00,56.3,54.0,30.11,ENE,66,0.0,0.0,92,0.00,,FEW100,0.00,VWS V14.01,2013-08-18 11:17:00,
2013-08-18 06:18:00,56.3,54.0,30.11,ENE,66,0.0,0.0,92,0.00,,FEW100,0.00,VWS V14.01,2013-08-18 11:18:00,
2013-08-18 06:19:00,56.5,54.8,30.11,ENE,66,0.0,0.0,94,0.00,,FEW100,0.00,VWS V14.01,2013-08-18 11:19:00,
2013-08-18 06:22:00,56.7,56.1,30.11,ENE,66,0.0,0.0,98,0.00,,FEW100,0.00,VWS V14.01,2013-08-18 11:22:00,
2013-08-18 06:24:00,56.8,56.8,30.11,ENE,66,0.0,0.0,100,0.00,,FEW100,0.00,VWS V14.01,2013-08-18 11:24:00,
2013-08-18 06:26:00,56.8,56.8,30.11,ENE,66,0.0,0.0,100,0.00,,FEW100,0.00,VWS V14.01,2013-08-18 11:26:00,
2013-08-18 06:27:00,56.8,56.8,30.11,ENE,66,0.0,0.0,100,0.00,,FEW100,0.00,VWS V14.01,2013-08-18 11:27:00,
2013-08-18 06:31:00,56.7,55.5,30.11,ENE,66,0.0,0.0,96,0.00,,FEW100,0.00,VWS V14.01,2013-08-18 11:31:00,
2013-08-18 06:32:00,56.7,55.5,30.11,ENE,66,0.0,0.0,96,0.00,,FEW100,0.00,VWS V14.01,2013-08-18 11:32:00,
2013-08-18 06:33:00,56.7,55.5,30.11,ENE,66,0.0,0.0,96,0.00,,FEW100,0.00,VWS V14.01,2013-08-18 11:33:00,
2013-08-18 06:37:00,56.7,55.0,30.11,ENE,66,0.0,0.0,94,0.00,,FEW100,0.00,VWS V14.01,2013-08-18 11:37:00,
2013-08-18 06:38:00,56.5,54.8,30.11,ENE,66,0.0,0.0,94,0.00,,FEW100,0.00,VWS V14.01,2013-08-18 11:38:00,
2013-08-18 06:40:00,56.7,55.5,30.11,ENE,66,0.0,0.0,96,0.00,,FEW100,0.00,VWS V14.01,2013-08-18 11:40:00,
2013-08-18 06:42:00,56.7,56.1,30.08,ENE,66,0.0,0.0,98,0.00,,FEW100,0.00,VWS V14.01,2013-08-18 11:42:00,
2013-08-18 06:43:00,56.7,56.1,30.08,ENE,66,0.0,0.0,98,0.00,,FEW100,0.00,VWS V14.01,2013-08-18 11:43:00,
2013-08-18 06:44:00,56.7,56.1,30.08,ENE,66,0.0,0.0,98,0.00,,FEW100,0.00,VWS V14.01,2013-08-18 11:44:00,
2013-08-18 06:45:00,56.7,56.1,30.08,ENE,66,0.0,0.0,98,0.00,,FEW100,0.00,VWS V14.01,2013-08-18 11:45:00,
2013-08-18 06:47:00,56.7,56.1,30.08,ENE,66,0.0,0.0,98,0.00,,FEW100,0.00,VWS V14.01,2013-08-18 11:47:00,
2013-08-18 06:48:00,56.7,56.1,30.08,ENE,66,0.0,0.0,98,0.00,,FEW100,0.00,VWS V14.01,2013-08-18 11:48:00,
2013-08-18 06:49:00,56.7,56.1,30.08,ENE,66,0.0,0.0,98,0.00,,FEW100,0.00,VWS V14.01,2013-08-18 11:49:00,
2013-08-18 06:50:00,56.8,56.8,30.08,ENE,66,0.0,0.0,100,0.00,,FEW100,0.00,VWS V14.01,2013-08-18 11:50:00,
2013-08-18 06:53:00,56.8,56.8,30.08,ENE,66,0.0,0.0,100,0.00,,FEW100,0.00,VWS V14.01,2013-08-18 11:53:00,
2013-08-18 06:54:00,57.0,57.0,30.08,ENE,66,0.0,0.0,100,0.00,,FEW100,0.00,VWS V14.01,2013-08-18 11:54:00,
2013-08-18 06:55:00,57.0,57.0,30.08,ENE,66,0.0,0.0,100,0.00,,FEW100,0.00,VWS V14.01,2013-08-18 11:55:00,
2013-08-18 06:58:00,57.0,57.0,30.11,ENE,66,0.0,0.0,100,0.00,,FEW100,0.00,VWS V14.01,2013-08-18 11:58:00,
2013-08-18 06:59:00,57.0,57.0,30.11,ENE,66,0.0,0.0,100,0.00,,FEW100,0.00,VWS V14.01,2013-08-18 11:59:00,
2013-08-18 07:00:00,57.2,57.2,30.11,ENE,66,0.0,0.0,100,0.00,,FEW100,0.00,VWS V14.01,2013-08-18 12:00:00,
2013-08-18 07:01:00,57.2,57.2,30.11,ENE,66,0.0,0.0,100,0.00,,FEW100,0.00,VWS V14.01,2013-08-18 12:01:00,
2013-08-18 07:04:00,57.4,57.4,30.11,ENE,66,0.0,0.0,100,0.00,,FEW100,0.00,VWS V14.01,2013-08-18 12:04:00,
2013-08-18 07:05:00,57.4,57.4,30.11,ENE,66,0.0,0.0,100,0.00,,FEW100,0.00,VWS V14.01,2013-08-18 12:05:00,
2013-08-18 07:06:00,57.6,57.6,30.11,ENE,66,0.0,0.0,100,0.00,,FEW100,0.00,VWS V14.01,2013-08-18 12:06:00,
2013-08-18 07:10:00,57.7,57.7,30.11,ENE,66,0.0,0.0,100,0.00,,FEW100,0.00,VWS V14.01,2013-08-18 12:10:00,
2013-08-18 07:11:00,57.9,57.9,30.11,ENE,66,0.0,0.0,100,0.00,,FEW100,0.00,VWS V14.01,2013-08-18 12:11:00,
2013-08-18 07:12:00,57.9,57.9,30.11,ENE,66,0.0,0.0,100,0.00,,FEW100,0.00,VWS V14.01,2013-08-18 12:12:00,
2013-08-18 07:15:00,58.3,58.3,30.11,ENE,66,0.0,0.0,100,0.00,,FEW100,0.00,VWS V14.01,2013-08-18 12:15:00,
2013-08-18 07:16:00,58.5,58.5,30.11,ENE,66,0.0,0.0,100,0.00,,FEW100,0.00,VWS V14.01,2013-08-18 12:16:00,
2013-08-18 07:17:00,58.5,58.5,30.11,ENE,66,0.0,0.0,100,0.00,,FEW100,0.00,VWS V14.01,2013-08-18 12:17:00,
2013-08-18 07:18:00,58.6,58.6,30.11,ENE,66,0.0,0.0,100,0.00,,FEW100,0.00,VWS V14.01,2013-08-18 12:18:00,
2013-08-18 07:20:00,58.8,58.8,30.11,ENE,66,0.0,0.0,100,0.00,,FEW100,0.00,VWS V14.01,2013-08-18 12:20:00,
2013-08-18 07:21:00,58.8,58.8,30.11,ENE,66,0.0,0.0,100,0.00,,FEW100,0.00,VWS V14.01,2013-08-18 12:21:00,
2013-08-18 07:22:00,59.0,59.0,30.11,ENE,66,0.0,0.0,100,0.00,,FEW100,0.00,VWS V14.01,2013-08-18 12:22:00,
2013-08-18 07:23:00,59.2,59.2,30.11,ENE,66,0.0,0.0,100,0.00,,FEW100,0.00,VWS V14.01,2013-08-18 12:23:00,
2013-08-18 07:25:00,59.5,59.5,30.11,ENE,66,0.0,0.0,100,0.00,,FEW100,0.00,VWS V14.01,2013-08-18 12:25:00,
2013-08-18 07:27:00,59.9,59.9,30.11,ENE,65,0.0,0.0,100,0.00,,FEW100,0.00,VWS V14.01,2013-08-18 12:27:00,
2013-08-18 07:28:00,60.1,60.1,30.11,ENE,65,0.0,0.0,100,0.00,,FEW100,0.00,VWS V14.01,2013-08-18 12:28:00,
2013-08-18 07:31:00,60.3,60.3,30.11,ENE,65,0.0,0.0,100,0.00,,FEW100,0.00,VWS V14.01,2013-08-18 12:31:00,
2013-08-18 07:32:00,60.4,60.4,30.11,ENE,66,0.0,0.0,100,0.00,,FEW100,0.00,VWS V14.01,2013-08-18 12:32:00,
2013-08-18 07:33:00,60.4,60.4,30.11,ENE,65,0.0,0.0,100,0.00,,FEW100,0.00,VWS V14.01,2013-08-18 12:33:00,
2013-08-18 07:36:00,60.6,60.6,30.11,ENE,65,0.0,0.0,100,0.00,,FEW100,0.00,VWS V14.01,2013-08-18 12:36:00,
2013-08-18 07:37:00,60.6,60.6,30.11,ENE,65,0.0,0.0,100,0.00,,FEW100,0.00,VWS V14.01,2013-08-18 12:37:00,
2013-08-18 07:38:00,60.8,60.8,30.11,ENE,65,0.0,0.0,100,0.00,,FEW100,0.00,VWS V14.01,2013-08-18 12:38:00,
2013-08-18 07:39:00,61.0,61.0,30.11,ENE,66,0.0,0.0,100,0.00,,FEW100,0.00,VWS V14.01,2013-08-18 12:39:00,
2013-08-18 07:42:00,61.3,61.3,30.11,ENE,65,0.0,0.0,100,0.00,,FEW100,0.00,VWS V14.01,2013-08-18 12:42:00,
2013-08-18 07:43:00,61.5,61.5,30.11,ENE,66,0.0,0.0,100,0.00,,FEW100,0.00,VWS V14.01,2013-08-18 12:43:00,
2013-08-18 07:45:00,61.7,61.7,30.11,ENE,66,0.0,0.0,100,0.00,,FEW100,0.00,VWS V14.01,2013-08-18 12:45:00,
2013-08-18 07:47:00,62.2,62.2,30.11,ENE,66,0.0,0.0,100,0.00,,FEW100,0.00,VWS V14.01,2013-08-18 12:47:00,
2013-08-18 07:48:00,62.6,62.6,30.11,ENE,65,0.0,0.0,100,0.00,,FEW100,0.00,VWS V14.01,2013-08-18 12:48:00,
2013-08-18 07:49:00,62.6,62.6,30.11,ENE,65,0.0,0.0,100,0.00,,FEW100,0.00,VWS V14.01,2013-08-18 12:49:00,
2013-08-18 07:52:00,63.7,63.7,30.11,ENE,65,0.0,0.0,100,0.00,,FEW100,0.00,VWS V14.01,2013-08-18 12:52:00,
2013-08-18 07:53:00,64.0,64.0,30.11,ENE,65,0.0,0.0,100,0.00,,FEW100,0.00,VWS V14.01,2013-08-18 12:53:00,
2013-08-18 07:54:00,64.2,64.2,30.11,ENE,65,0.0,0.0,100,0.00,,FEW100,0.00,VWS V14.01,2013-08-18 12:54:00,
2013-08-18 07:56:00,64.9,64.9,30.11,ENE,66,0.0,0.0,100,0.00,,FEW100,0.00,VWS V14.01,2013-08-18 12:56:00,
2013-08-18 07:58:00,65.5,65.5,30.11,ENE,66,0.0,0.0,100,0.00,,FEW100,0.00,VWS V14.01,2013-08-18 12:58:00,
2013-08-18 07:59:00,65.7,65.7,30.11,ENE,65,0.0,0.0,100,0.00,,FEW100,0.00,VWS V14.01,2013-08-18 12:59:00,
2013-08-18 08:01:00,65.7,65.7,30.11,ENE,66,0.0,0.0,100,0.00,,FEW100,0.00,VWS V14.01,2013-08-18 13:01:00,
2013-08-18 08:03:00,65.7,65.7,30.11,ENE,66,0.0,0.0,100,0.00,,FEW100,0.00,VWS V14.01,2013-08-18 13:03:00,
2013-08-18 08:04:00,65.5,65.5,30.11,ENE,65,0.0,0.0,100,0.00,,FEW100,0.00,VWS V14.01,2013-08-18 13:04:00,
2013-08-18 08:05:00,65.5,64.9,30.11,ENE,66,0.0,0.0,98,0.00,,FEW100,0.00,VWS V14.01,2013-08-18 13:05:00,
2013-08-18 08:07:00,65.5,64.3,30.11,ENE,66,0.0,0.0,96,0.00,,FEW100,0.00,VWS V14.01,2013-08-18 13:07:00,
2013-08-18 08:08:00,65.5,63.1,30.11,ENE,66,0.0,2.7,92,0.00,,FEW100,0.00,VWS V14.01,2013-08-18 13:08:00,
2013-08-18 08:10:00,65.3,62.3,30.11,NE,38,3.1,3.1,90,0.00,,FEW100,0.00,VWS V14.01,2013-08-18 13:10:00,
2013-08-18 08:11:00,65.1,61.5,30.11,NNE,22,2.7,3.6,88,0.00,,FEW100,0.00,VWS V14.01,2013-08-18 13:11:00,
2013-08-18 08:12:00,65.1,60.8,30.11,NNE,16,4.5,4.5,86,0.00,,FEW100,0.00,VWS V14.01,2013-08-18 13:12:00,
2013-08-18 08:13:00,65.1,58.1,30.11,NNE,19,3.6,3.6,78,0.00,,FEW100,0.00,VWS V14.01,2013-08-18 13:13:00,
2013-08-18 08:15:00,65.5,57.0,30.11,NNE,18,2.7,3.1,74,0.00,,FEW100,0.00,VWS V14.01,2013-08-18 13:15:00,
2013-08-18 08:16:00,65.7,56.4,30.11,NNE,18,0.0,2.7,72,0.00,,FEW100,0.00,VWS V14.01,2013-08-18 13:16:00,
2013-08-18 08:17:00,65.7,56.4,30.11,NNE,19,0.0,3.6,72,0.00,,FEW100,0.00,VWS V14.01,2013-08-18 13:17:00,
2013-08-18 08:18:00,65.7,55.6,30.11,NNE,19,2.7,2.7,70,0.00,,FEW100,0.00,VWS V14.01,2013-08-18 13:18:00,
2013-08-18 08:20:00,65.8,55.8,30.11,NNE,20,3.1,3.6,70,0.00,,FEW100,0.00,VWS V14.01,2013-08-18 13:20:00,
2013-08-18 08:21:00,66.0,56.0,30.11,NNE,21,2.7,3.1,70,0.00,,FEW100,0.00,VWS V14.01,2013-08-18 13:21:00,
2013-08-18 08:23:00,66.2,55.3,30.11,NNE,20,2.7,2.7,68,0.00,,FEW100,0.00,VWS V14.01,2013-08-18 13:23:00,
2013-08-18 08:25:00,66.2,55.3,30.11,NE,43,3.6,4.5,68,0.00,,FEW100,0.00,VWS V14.01,2013-08-18 13:25:00,
2013-08-18 08:27:00,66.2,54.5,30.11,NE,39,2.7,4.0,66,0.00,,FEW100,0.00,VWS V14.01,2013-08-18 13:27:00,
2013-08-18 08:28:00,66.6,53.2,30.11,NNE,22,3.6,4.0,62,0.00,,FEW100,0.00,VWS V14.01,2013-08-18 13:28:00,
2013-08-18 08:30:00,66.9,50.7,30.11,NE,43,4.9,4.9,56,0.00,,FEW100,0.00,VWS V14.01,2013-08-18 13:30:00,
2013-08-18 08:31:00,67.1,49.9,30.11,NE,41,3.6,4.9,54,0.00,,FEW100,0.00,VWS V14.01,2013-08-18 13:31:00,
2013-08-18 08:32:00,67.3,49.1,30.11,NE,45,3.1,3.6,52,0.00,,FEW100,0.00,VWS V14.01,2013-08-18 13:32:00,
2013-08-18 08:34:00,67.5,49.2,30.11,NE,46,3.1,4.9,52,0.00,,FEW100,0.00,VWS V14.01,2013-08-18 13:34:00,
2013-08-18 08:35:00,67.6,48.4,30.11,NE,36,3.6,4.0,50,0.00,,FEW100,0.00,VWS V14.01,2013-08-18 13:35:00,
2013-08-18 08:36:00,67.8,48.5,30.11,NE,36,2.7,4.0,50,0.00,,FEW100,0.00,VWS V14.01,2013-08-18 13:36:00,
2013-08-18 08:37:00,67.8,48.5,30.11,NNE,27,4.9,4.9,50,0.00,,FEW100,0.00,VWS V14.01,2013-08-18 13:37:00,
2013-08-18 08:39:00,68.0,47.6,30.11,NE,37,4.0,4.0,48,0.00,,FEW100,0.00,VWS V14.01,2013-08-18 13:39:00,
2013-08-18 08:40:00,68.2,46.6,30.11,NNE,32,2.2,3.1,46,0.00,,FEW100,0.00,VWS V14.01,2013-08-18 13:40:00,
2013-08-18 08:41:00,68.4,46.8,30.11,NNE,33,3.6,3.6,46,0.00,,FEW100,0.00,VWS V14.01,2013-08-18 13:41:00,
2013-08-18 08:42:00,68.5,47.0,30.11,NE,39,3.6,3.6,46,0.00,,FEW100,0.00,VWS V14.01,2013-08-18 13:42:00,
2013-08-18 08:44:00,68.5,47.0,30.11,NE,38,4.9,5.8,46,0.00,,FEW100,0.00,VWS V14.01,2013-08-18 13:44:00,
2013-08-18 08:46:00,68.7,47.1,30.11,NE,36,5.4,5.4,46,0.00,,FEW100,0.00,VWS V14.01,2013-08-18 13:46:00,
2013-08-18 08:48:00,68.9,46.1,30.11,NE,40,3.1,3.6,44,0.00,,FEW100,0.00,VWS V14.01,2013-08-18 13:48:00,
2013-08-18 08:49:00,69.1,46.3,30.11,NE,56,2.7,2.7,44,0.00,,FEW100,0.00,VWS V14.01,2013-08-18 13:49:00,
2013-08-18 08:51:00,69.1,46.3,30.11,NE,35,4.5,4.9,44,0.00,,FEW100,0.00,VWS V14.01,2013-08-18 13:51:00,
2013-08-18 08:52:00,69.3,46.4,30.11,NNE,26,2.7,4.0,44,0.00,,FEW100,0.00,VWS V14.01,2013-08-18 13:52:00,
2013-08-18 08:53:00,69.3,46.4,30.11,NE,38,2.7,4.0,44,0.00,,FEW100,0.00,VWS V14.01,2013-08-18 13:53:00,
2013-08-18 08:54:00,69.4,46.6,30.11,NE,38,3.6,3.6,44,0.00,,FEW100,0.00,VWS V14.01,2013-08-18 13:54:00,
2013-08-18 08:56:00,69.4,44.1,30.11,NNE,33,4.0,5.4,40,0.00,,FEW100,0.00,VWS V14.01,2013-08-18 13:56:00,
2013-08-18 08:57:00,69.6,44.2,30.11,NNE,29,3.6,3.6,40,0.00,,FEW100,0.00,VWS V14.01,2013-08-18 13:57:00,
2013-08-18 08:58:00,69.6,46.8,30.11,NE,45,3.6,5.4,44,0.00,,FEW100,0.00,VWS V14.01,2013-08-18 13:58:00,
2013-08-18 08:59:00,69.8,46.9,30.11,NNE,26,3.1,6.3,44,0.00,,FEW100,0.00,VWS V14.01,2013-08-18 13:59:00,
2013-08-18 09:01:00,70.0,43.2,30.11,NNE,19,5.4,5.4,38,0.00,,FEW100,0.00,VWS V14.01,2013-08-18 14:01:00,
2013-08-18 09:02:00,70.0,43.2,30.11,NNE,25,4.0,4.9,38,0.00,,FEW100,0.00,VWS V14.01,2013-08-18 14:02:00,
2013-08-18 09:03:00,70.0,43.2,30.11,NNE,30,4.9,4.9,38,0.00,,FEW100,0.00,VWS V14.01,2013-08-18 14:03:00,
2013-08-18 09:04:00,70.0,43.2,30.11,NNE,17,5.4,5.4,38,0.00,,FEW100,0.00,VWS V14.01,2013-08-18 14:04:00,
2013-08-18 09:06:00,70.2,43.4,30.11,NE,46,4.0,5.8,38,0.00,,FEW100,0.00,VWS V14.01,2013-08-18 14:06:00,
2013-08-18 09:08:00,70.2,43.4,30.11,NNE,14,4.0,4.9,38,0.00,,FEW100,0.00,VWS V14.01,2013-08-18 14:08:00,
2013-08-18 09:09:00,70.2,43.4,30.11,NNE,29,4.9,5.4,38,0.00,,FEW100,0.00,VWS V14.01,2013-08-18 14:09:00,
2013-08-18 09:10:00,70.3,47.4,30.11,NNE,30,0.0,2.2,44,0.00,,FEW100,0.00,VWS V14.01,2013-08-18 14:10:00,
2013-08-18 09:11:00,70.5,47.6,30.11,NNE,30,0.0,0.0,44,0.00,,FEW100,0.00,VWS V14.01,2013-08-18 14:11:00,
2013-08-18 09:14:00,70.7,47.7,30.11,NNE,27,0.0,4.0,44,0.00,,FEW100,0.00,VWS V14.01,2013-08-18 14:14:00,
2013-08-18 09:15:00,70.9,47.9,30.11,NNE,22,3.6,4.0,44,0.00,,FEW100,0.00,VWS V14.01,2013-08-18 14:15:00,
2013-08-18 09:16:00,71.1,48.1,30.11,NNE,29,2.2,4.0,44,0.00,,FEW100,0.00,VWS V14.01,2013-08-18 14:16:00,
2013-08-18 09:17:00,71.1,44.2,30.11,NNE,14,4.9,4.9,38,0.00,,FEW100,0.00,VWS V14.01,2013-08-18 14:17:00,
2013-08-18 09:19:00,71.4,44.5,30.11,North,6,3.1,4.9,38,0.00,,FEW100,0.00,VWS V14.01,2013-08-18 14:19:00,
2013-08-18 09:20:00,71.4,44.5,30.11,North,6,3.6,3.6,38,0.00,,FEW100,0.00,VWS V14.01,2013-08-18 14:20:00,
2013-08-18 09:22:00,71.6,44.7,30.11,North,9,3.1,4.9,38,0.00,,FEW100,0.00,VWS V14.01,2013-08-18 14:22:00,
2013-08-18 09:23:00,71.6,44.7,30.11,NE,40,4.0,4.0,38,0.00,,FEW100,0.00,VWS V14.01,2013-08-18 14:23:00,
2013-08-18 09:24:00,71.8,44.8,30.11,NE,34,4.0,4.0,38,0.00,,FEW100,0.00,VWS V14.01,2013-08-18 14:24:00,
2013-08-18 09:25:00,71.8,44.8,30.11,NNE,22,6.3,6.3,38,0.00,,FEW100,0.00,VWS V14.01,2013-08-18 14:25:00,
2013-08-18 09:27:00,71.8,44.8,30.11,NNE,31,0.0,3.6,38,0.00,,FEW100,0.00,VWS V14.01,2013-08-18 14:27:00,
2013-08-18 09:29:00,72.0,45.0,30.11,NE,42,5.4,5.4,38,0.00,,FEW100,0.00,VWS V14.01,2013-08-18 14:29:00,
2013-08-18 09:30:00,72.1,40.7,30.11,NE,42,3.1,3.1,32,0.00,,FEW100,0.00,VWS V14.01,2013-08-18 14:30:00,
2013-08-18 09:31:00,72.1,45.2,30.11,NE,42,0.0,0.0,38,0.00,,FEW100,0.00,VWS V14.01,2013-08-18 14:31:00,
2013-08-18 09:32:00,72.3,40.8,30.11,North,1,3.1,3.1,32,0.00,,FEW100,0.00,VWS V14.01,2013-08-18 14:32:00,
2013-08-18 09:34:00,72.5,41.0,30.11,NNE,25,5.4,5.4,32,0.00,,FEW100,0.00,VWS V14.01,2013-08-18 14:34:00,
2013-08-18 09:35:00,72.7,41.2,30.11,North,357,2.7,5.4,32,0.00,,FEW100,0.00,VWS V14.01,2013-08-18 14:35:00,
2013-08-18 09:36:00,72.5,41.0,30.11,NNE,25,7.6,7.6,32,0.00,,FEW100,0.00,VWS V14.01,2013-08-18 14:36:00,
2013-08-18 09:37:00,72.7,41.2,30.11,NE,38,3.6,3.6,32,0.00,,FEW100,0.00,VWS V14.01,2013-08-18 14:37:00,
2013-08-18 09:39:00,72.7,41.2,30.11,NE,38,0.0,0.0,32,0.00,,FEW100,0.00,VWS V14.01,2013-08-18 14:39:00,
2013-08-18 09:40:00,72.9,41.3,30.11,NE,38,3.1,4.5,32,0.00,,FEW100,0.00,VWS V14.01,2013-08-18 14:40:00,
2013-08-18 09:41:00,72.9,41.3,30.11,NNE,24,4.9,4.9,32,0.00,,FEW100,0.00,VWS V14.01,2013-08-18 14:41:00,
2013-08-18 09:42:00,73.0,41.5,30.11,NNE,33,3.6,4.9,32,0.00,,FEW100,0.00,VWS V14.01,2013-08-18 14:42:00,
2013-08-18 09:44:00,73.2,41.6,30.11,NE,49,0.0,0.0,32,0.00,,FEW100,0.00,VWS V14.01,2013-08-18 14:44:00,
2013-08-18 09:45:00,73.2,41.6,30.11,NE,49,0.0,0.0,32,0.00,,FEW100,0.00,VWS V14.01,2013-08-18 14:45:00,
2013-08-18 09:47:00,73.6,41.9,30.11,NE,46,2.7,4.5,32,0.00,,FEW100,0.00,VWS V14.01,2013-08-18 14:47:00,
2013-08-18 09:49:00,73.8,42.1,30.11,NNE,21,3.1,3.6,32,0.00,,FEW100,0.00,VWS V14.01,2013-08-18 14:49:00,
2013-08-18 09:50:00,73.8,36.8,30.11,NNE,20,3.6,4.9,26,0.00,,FEW100,0.00,VWS V14.01,2013-08-18 14:50:00,
2013-08-18 09:53:00,73.9,42.2,30.11,NNE,29,0.0,0.0,32,0.00,,FEW100,0.00,VWS V14.01,2013-08-18 14:53:00,
2013-08-18 09:54:00,74.1,42.4,30.11,NE,38,0.0,0.0,32,0.00,,FEW100,0.00,VWS V14.01,2013-08-18 14:54:00,
2013-08-18 09:55:00,74.3,42.6,30.11,NE,38,0.0,0.0,32,0.00,,FEW100,0.00,VWS V14.01,2013-08-18 14:55:00,
2013-08-18 09:56:00,74.5,42.7,30.11,NE,38,0.0,0.0,32,0.00,,FEW100,0.00,VWS V14.01,2013-08-18 14:56:00,
2013-08-18 09:59:00,75.0,43.2,30.11,NE,38,0.0,0.0,32,0.00,,FEW100,0.00,VWS V14.01,2013-08-18 14:59:00,
2013-08-18 10:00:00,75.4,41.8,30.11,NE,38,0.0,0.0,30,0.00,,FEW100,0.00,VWS V14.01,2013-08-18 15:00:00,
2013-08-18 10:01:00,75.4,41.8,30.11,NE,38,0.0,0.0,30,0.00,,FEW100,0.00,VWS V14.01,2013-08-18 15:01:00,
2013-08-18 10:04:00,75.9,38.6,30.11,NNE,23,3.6,4.0,26,0.00,,FEW100,0.00,VWS V14.01,2013-08-18 15:04:00,
2013-08-18 10:06:00,76.1,38.8,30.11,NE,41,3.6,4.5,26,0.00,,FEW100,0.00,VWS V14.01,2013-08-18 15:06:00,
2013-08-18 10:07:00,75.9,38.6,30.11,NE,41,0.0,3.1,26,0.00,,FEW100,0.00,VWS V14.01,2013-08-18 15:07:00,
2013-08-18 10:11:00,75.9,38.6,30.11,ENE,64,0.0,0.0,26,0.00,,FEW100,0.00,VWS V14.01,2013-08-18 15:11:00,
2013-08-18 10:12:00,75.9,38.6,30.11,ENE,64,2.2,2.2,26,0.00,,FEW100,0.00,VWS V14.01,2013-08-18 15:12:00,
2013-08-18 10:16:00,76.8,39.4,30.11,ENE,61,0.0,0.0,26,0.00,,FEW100,0.00,VWS V14.01,2013-08-18 15:16:00,
2013-08-18 10:17:00,77.0,39.5,30.11,ENE,61,0.0,0.0,26,0.00,,FEW100,0.00,VWS V14.01,2013-08-18 15:17:00,
2013-08-18 10:18:00,77.2,39.7,30.11,ENE,61,0.0,0.0,26,0.00,,FEW100,0.00,VWS V14.01,2013-08-18 15:18:00,
2013-08-18 10:22:00,77.5,40.0,30.11,NE,46,0.0,2.2,26,0.00,,FEW100,0.00,VWS V14.01,2013-08-18 15:22:00,
2013-08-18 10:24:00,77.7,40.1,30.11,NE,47,0.0,0.0,26,0.00,,FEW100,0.00,VWS V14.01,2013-08-18 15:24:00,
2013-08-18 10:27:00,78.3,40.6,30.11,NNE,23,5.4,5.4,26,0.00,,FEW100,0.00,VWS V14.01,2013-08-18 15:27:00,
2013-08-18 10:28:00,78.3,40.6,30.11,NNE,20,4.0,5.4,26,0.00,,FEW100,0.00,VWS V14.01,2013-08-18 15:28:00,
2013-08-18 10:32:00,78.1,40.4,30.11,North,3,2.2,2.2,26,0.00,,FEW100,0.00,VWS V14.01,2013-08-18 15:32:00,
2013-08-18 10:33:00,77.9,40.3,30.11,North,6,0.0,0.0,26,0.00,,FEW100,0.00,VWS V14.01,2013-08-18 15:33:00,
2013-08-18 10:34:00,78.1,40.4,30.11,NNE,24,0.0,0.0,26,0.00,,FEW100,0.00,VWS V14.01,2013-08-18 15:34:00,
2013-08-18 10:37:00,77.7,40.1,30.11,NE,45,3.6,4.0,26,0.00,,FEW100,0.00,VWS V14.01,2013-08-18 15:37:00,
2013-08-18 10:39:00,77.9,40.3,30.11,North,5,2.7,3.1,26,0.00,,FEW100,0.00,VWS V14.01,2013-08-18 15:39:00,
2013-08-18 10:40:00,77.7,40.1,30.11,NE,43,4.0,4.0,26,0.00,,FEW100,0.00,VWS V14.01,2013-08-18 15:40:00,
2013-08-18 10:42:00,77.7,40.1,30.11,NNE,30,4.0,6.3,26,0.00,,FEW100,0.00,VWS V14.01,2013-08-18 15:42:00,
2013-08-18 10:44:00,77.7,40.1,30.11,NE,44,0.0,4.0,26,0.00,,FEW100,0.00,VWS V14.01,2013-08-18 15:44:00,
2013-08-18 10:45:00,77.7,40.1,30.11,NE,44,0.0,0.0,26,0.00,,FEW100,0.00,VWS V14.01,2013-08-18 15:45:00,
2013-08-18 10:46:00,77.9,40.3,30.11,NNE,25,4.9,4.9,26,0.00,,FEW100,0.00,VWS V14.01,2013-08-18 15:46:00,
2013-08-18 10:49:00,77.9,40.3,30.11,NNE,28,0.0,3.1,26,0.00,,FEW100,0.00,VWS V14.01,2013-08-18 15:49:00,
2013-08-18 10:50:00,78.1,40.4,30.11,NNE,26,0.0,4.0,26,0.00,,FEW100,0.00,VWS V14.01,2013-08-18 15:50:00,
2013-08-18 10:52:00,78.1,40.4,30.11,NNW,338,3.1,3.6,26,0.00,,FEW100,0.00,VWS V14.01,2013-08-18 15:52:00,
2013-08-18 10:55:00,78.3,40.6,30.11,NNE,16,3.6,4.0,26,0.00,,FEW100,0.00,VWS V14.01,2013-08-18 15:55:00,
2013-08-18 10:56:00,78.3,40.6,30.11,NNE,16,0.0,3.6,26,0.00,,FEW100,0.00,VWS V14.01,2013-08-18 15:56:00,
2013-08-18 10:57:00,78.1,40.4,30.11,North,357,3.1,4.0,26,0.00,,FEW100,0.00,VWS V14.01,2013-08-18 15:57:00,
2013-08-18 11:00:00,78.1,40.4,30.11,NNW,348,3.6,3.6,26,0.00,,FEW100,0.00,VWS V14.01,2013-08-18 16:00:00,
2013-08-18 11:02:00,77.9,40.3,30.11,North,4,4.0,5.4,26,0.00,,FEW100,0.00,VWS V14.01,2013-08-18 16:02:00,
2013-08-18 11:03:00,78.1,40.4,30.11,NW,319,4.5,4.9,26,0.00,,FEW100,0.00,VWS V14.01,2013-08-18 16:03:00,
2013-08-18 11:05:00,78.1,40.4,30.11,NNW,331,4.9,5.4,26,0.00,,FEW100,0.00,VWS V14.01,2013-08-18 16:05:00,
2013-08-18 11:06:00,78.1,40.4,30.11,NNW,332,2.7,4.9,26,0.00,,FEW100,0.00,VWS V14.01,2013-08-18 16:06:00,
2013-08-18 11:07:00,78.1,40.4,30.11,NNW,331,4.9,4.9,26,0.00,,FEW100,0.00,VWS V14.01,2013-08-18 16:07:00,
2013-08-18 11:09:00,78.1,40.4,30.11,NE,39,0.0,0.0,26,0.00,,FEW100,0.00,VWS V14.01,2013-08-18 16:09:00,
2013-08-18 11:11:00,78.4,40.8,30.11,NE,37,0.0,0.0,26,0.00,,FEW100,0.00,VWS V14.01,2013-08-18 16:11:00,
2013-08-18 11:12:00,78.3,40.6,30.11,NNE,17,0.0,0.0,26,0.00,,FEW100,0.00,VWS V14.01,2013-08-18 16:12:00,
2013-08-18 11:13:00,78.4,40.8,30.11,NNE,20,0.0,0.0,26,0.00,,FEW100,0.00,VWS V14.01,2013-08-18 16:13:00,
2013-08-18 11:15:00,78.8,39.0,30.11,NNE,20,0.0,0.0,24,0.00,,FEW100,0.00,VWS V14.01,2013-08-18 16:15:00,
2013-08-18 11:16:00,79.2,39.3,30.11,NNE,16,4.9,5.4,24,0.00,,FEW100,0.00,VWS V14.01,2013-08-18 16:16:00,
2013-08-18 11:18:00,79.3,39.5,30.11,North,353,4.9,6.3,24,0.00,,FEW100,0.00,VWS V14.01,2013-08-18 16:18:00,
2013-08-18 11:20:00,79.3,39.5,30.11,NNW,336,4.0,4.9,24,0.00,,FEW100,0.00,VWS V14.01,2013-08-18 16:20:00,
2013-08-18 11:22:00,79.3,39.5,30.11,NNW,341,2.7,3.1,24,0.00,,FEW100,0.00,VWS V14.01,2013-08-18 16:22:00,
2013-08-18 11:23:00,79.3,39.5,30.11,NE,42,5.8,6.7,24,0.00,,FEW100,0.00,VWS V14.01,2013-08-18 16:23:00,
2013-08-18 11:24:00,79.5,39.6,30.11,ENE,59,2.7,6.7,24,0.00,,FEW100,0.00,VWS V14.01,2013-08-18 16:24:00,
2013-08-18 11:26:00,79.9,39.9,30.11,NNW,337,0.0,0.0,24,0.00,,FEW100,0.00,VWS V14.01,2013-08-18 16:26:00,
2013-08-18 11:27:00,80.1,40.1,30.11,NNW,337,0.0,0.0,24,0.00,,FEW100,0.00,VWS V14.01,2013-08-18 16:27:00,
2013-08-18 11:29:00,80.6,40.5,30.11,NNW,337,3.6,3.6,24,0.00,,FEW100,0.00,VWS V14.01,2013-08-18 16:29:00,
2013-08-18 11:30:00,80.8,40.7,30.11,NNE,13,4.0,5.8,24,0.00,,FEW100,0.00,VWS V14.01,2013-08-18 16:30:00,
2013-08-18 11:31:00,80.8,40.7,30.11,North,7,3.1,4.0,24,0.00,,FEW100,0.00,VWS V14.01,2013-08-18 16:31:00,
2013-08-18 11:33:00,80.8,40.7,30.11,North,7,3.6,4.0,24,0.00,,FEW100,0.00,VWS V14.01,2013-08-18 16:33:00,
2013-08-18 11:35:00,80.4,40.4,30.11,NNW,342,3.6,4.0,24,0.00,,FEW100,0.00,VWS V14.01,2013-08-18 16:35:00,
2013-08-18 11:36:00,80.2,40.2,30.11,NNW,342,3.6,3.6,24,0.00,,FEW100,0.00,VWS V14.01,2013-08-18 16:36:00,
2013-08-18 11:37:00,80.1,40.1,30.11,NNW,342,0.0,0.0,24,0.00,,FEW100,0.00,VWS V14.01,2013-08-18 16:37:00,
2013-08-18 11:38:00,80.1,40.1,30.11,NNE,14,4.0,4.0,24,0.00,,FEW100,0.00,VWS V14.01,2013-08-18 16:38:00,
2013-08-18 11:40:00,80.1,40.1,30.11,NNE,20,4.9,4.9,24,0.00,,FEW100,0.00,VWS V14.01,2013-08-18 16:40:00,
2013-08-18 11:42:00,80.1,40.1,30.11,NE,47,3.1,5.4,24,0.00,,FEW100,0.00,VWS V14.01,2013-08-18 16:42:00,
2013-08-18 11:43:00,80.1,40.1,30.11,NE,47,3.6,3.6,24,0.00,,FEW100,0.00,VWS V14.01,2013-08-18 16:43:00,
2013-08-18 11:44:00,80.2,40.2,30.11,NNE,15,2.7,4.9,24,0.00,,FEW100,0.00,VWS V14.01,2013-08-18 16:44:00,
2013-08-18 11:45:00,80.2,40.2,30.11,NNE,30,3.6,5.4,24,0.00,,FEW100,0.00,VWS V14.01,2013-08-18 16:45:00,
2013-08-18 11:47:00,80.4,40.4,30.11,NNE,31,3.6,4.0,24,0.00,,FEW100,0.00,VWS V14.01,2013-08-18 16:47:00,
2013-08-18 11:49:00,80.4,40.4,30.11,NE,44,3.1,5.8,24,0.00,,FEW100,0.00,VWS V14.01,2013-08-18 16:49:00,
2013-08-18 11:51:00,80.6,40.5,30.11,NNE,12,3.6,3.6,24,0.00,,FEW100,0.00,VWS V14.01,2013-08-18 16:51:00,
2013-08-18 11:53:00,80.6,40.5,30.11,NNW,336,2.7,4.0,24,0.00,,FEW100,0.00,VWS V14.01,2013-08-18 16:53:00,
2013-08-18 11:55:00,80.8,40.7,30.11,WSW,250,0.0,2.7,24,0.00,,FEW100,0.00,VWS V14.01,2013-08-18 16:55:00,
2013-08-18 11:56:00,80.8,40.7,30.11,NW,323,0.0,4.9,24,0.00,,FEW100,0.00,VWS V14.01,2013-08-18 16:56:00,
2013-08-18 11:59:00,81.1,41.0,30.11,North,7,0.0,0.0,24,0.00,,FEW100,0.00,VWS V14.01,2013-08-18 16:59:00,
2013-08-18 12:00:00,81.3,41.1,30.11,North,7,0.0,0.0,24,0.00,,FEW100,0.00,VWS V14.01,2013-08-18 17:00:00,
2013-08-18 12:01:00,81.3,41.1,30.11,North,7,4.0,4.0,24,0.00,,FEW100,0.00,VWS V14.01,2013-08-18 17:01:00,
2013-08-18 12:04:00,82.0,41.7,30.11,North,6,0.0,0.0,24,0.00,,FEW100,0.00,VWS V14.01,2013-08-18 17:04:00,
2013-08-18 12:05:00,82.2,41.9,30.11,North,6,0.0,0.0,24,0.00,,FEW100,0.00,VWS V14.01,2013-08-18 17:05:00,
2013-08-18 12:06:00,82.4,39.8,30.11,North,6,3.6,3.6,22,0.00,,FEW100,0.00,VWS V14.01,2013-08-18 17:06:00,
2013-08-18 12:07:00,82.8,40.1,30.11,NNE,15,4.5,4.5,22,0.00,,FEW100,0.00,VWS V14.01,2013-08-18 17:07:00,
2013-08-18 12:10:00,82.8,40.1,30.11,NNE,14,2.7,4.0,22,0.00,,FEW100,0.00,VWS V14.01,2013-08-18 17:10:00,
2013-08-18 12:11:00,82.8,40.1,30.11,NNE,14,0.0,2.7,22,0.00,,FEW100,0.00,VWS V14.01,2013-08-18 17:11:00,
2013-08-18 12:12:00,82.9,40.2,30.08,ENE,71,3.1,3.1,22,0.00,,FEW100,0.00,VWS V14.01,2013-08-18 17:12:00,
2013-08-18 12:13:00,82.9,40.2,30.08,ENE,62,4.0,4.0,22,0.00,,FEW100,0.00,VWS V14.01,2013-08-18 17:13:00,
2013-08-18 12:16:00,82.9,40.2,30.08,NNE,14,4.0,6.3,22,0.00,,FEW100,0.00,VWS V14.01,2013-08-18 17:16:00,
2013-08-18 12:17:00,82.9,40.2,30.08,NNE,21,4.0,4.9,22,0.00,,FEW100,0.00,VWS V14.01,2013-08-18 17:17:00,
2013-08-18 12:18:00,82.8,40.1,30.08,NNE,21,0.0,4.0,22,0.00,,FEW100,0.00,VWS V14.01,2013-08-18 17:18:00,
2013-08-18 12:21:00,82.8,40.1,30.08,NE,52,0.0,0.0,22,0.00,,FEW100,0.00,VWS V14.01,2013-08-18 17:21:00,
2013-08-18 12:23:00,82.8,40.1,30.08,NE,50,0.0,0.0,22,0.00,,FEW100,0.00,VWS V14.01,2013-08-18 17:23:00,
2013-08-18 12:24:00,83.1,40.4,30.08,NE,55,0.0,2.7,22,0.00,,FEW100,0.00,VWS V14.01,2013-08-18 17:24:00,
2013-08-18 12:26:00,83.7,40.8,30.08,NE,55,2.7,2.7,22,0.00,,FEW100,0.00,VWS V14.01,2013-08-18 17:26:00,
2013-08-18 12:27:00,83.8,41.0,30.08,North,353,3.6,3.6,22,0.00,,FEW100,0.00,VWS V14.01,2013-08-18 17:27:00,
2013-08-18 12:28:00,84.0,41.1,30.08,North,0,2.7,3.6,22,0.00,,FEW100,0.00,VWS V14.01,2013-08-18 17:28:00,
2013-08-18 12:30:00,84.0,41.1,30.08,NNW,327,0.0,0.0,22,0.00,,FEW100,0.00,VWS V14.01,2013-08-18 17:30:00,
2013-08-18 12:32:00,83.7,40.8,30.08,WNW,301,3.1,4.0,22,0.00,,FEW100,0.00,VWS V14.01,2013-08-18 17:32:00,
2013-08-18 12:33:00,83.7,40.8,30.08,WNW,301,0.0,0.0,22,0.00,,FEW100,0.00,VWS V14.01,2013-08-18 17:33:00,
2013-08-18 12:34:00,83.7,40.8,30.08,WNW,301,0.0,0.0,22,0.00,,FEW100,0.00,VWS V14.01,2013-08-18 17:34:00,
2013-08-18 12:35:00,83.7,40.8,30.08,WNW,301,0.0,0.0,22,0.00,,FEW100,0.00,VWS V14.01,2013-08-18 17:35:00,
2013-08-18 12:37:00,84.0,41.1,30.08,WNW,302,0.0,0.0,22,0.00,,FEW100,0.00,VWS V14.01,2013-08-18 17:37:00,
2013-08-18 12:38:00,84.2,41.3,30.08,WNW,287,2.7,2.7,22,0.00,,FEW100,0.00,VWS V14.01,2013-08-18 17:38:00,
2013-08-18 12:39:00,84.2,41.3,30.08,NNE,24,0.0,3.6,22,0.00,,FEW100,0.00,VWS V14.01,2013-08-18 17:39:00,
2013-08-18 12:40:00,84.2,41.3,30.08,NE,36,4.0,5.8,22,0.00,,FEW100,0.00,VWS V14.01,2013-08-18 17:40:00,
2013-08-18 12:43:00,83.7,40.8,30.08,East,93,0.0,3.6,22,0.00,,FEW100,0.00,VWS V14.01,2013-08-18 17:43:00,
2013-08-18 12:44:00,83.7,40.8,30.08,East,93,0.0,0.0,22,0.00,,FEW100,0.00,VWS V14.01,2013-08-18 17:44:00,
2013-08-18 12:45:00,83.7,40.8,30.08,East,93,0.0,0.0,22,0.00,,FEW100,0.00,VWS V14.01,2013-08-18 17:45:00,
2013-08-18 12:48:00,83.7,40.8,30.08,NE,37,0.0,0.0,22,0.00,,FEW100,0.00,VWS V14.01,2013-08-18 17:48:00,
2013-08-18 12:50:00,83.7,40.8,30.08,West,279,2.7,3.6,22,0.00,,FEW100,0.00,VWS V14.01,2013-08-18 17:50:00,
2013-08-18 12:51:00,83.3,40.5,30.08,North,357,4.0,6.3,22,0.00,,FEW100,0.00,VWS V14.01,2013-08-18 17:51:00,
2013-08-18 12:53:00,83.3,40.5,30.08,NE,47,5.4,5.8,22,0.00,,FEW100,0.00,VWS V14.01,2013-08-18 17:53:00,
2013-08-18 12:55:00,83.5,40.7,30.08,North,8,5.4,5.4,22,0.00,,FEW100,0.00,VWS V14.01,2013-08-18 17:55:00,
2013-08-18 12:57:00,83.7,40.8,30.08,NE,41,2.7,5.4,22,0.00,,FEW100,0.00,VWS V14.01,2013-08-18 17:57:00,
2013-08-18 12:59:00,83.8,41.0,30.08,North,357,2.7,3.6,22,0.00,,FEW100,0.00,VWS V14.01,2013-08-18 17:59:00,
2013-08-18 13:00:00,84.0,41.1,30.08,North,353,2.2,2.7,22,0.00,,FEW100,0.00,VWS V14.01,2013-08-18 18:00:00,
2013-08-18 13:02:00,84.0,41.1,30.08,North,10,0.0,3.1,22,0.00,,FEW100,0.00,VWS V14.01,2013-08-18 18:02:00,
2013-08-18 13:04:00,84.2,41.3,30.08,NE,42,0.0,0.0,22,0.00,,FEW100,0.00,VWS V14.01,2013-08-18 18:04:00,
2013-08-18 13:05:00,84.2,41.3,30.08,NE,42,0.0,0.0,22,0.00,,FEW100,0.00,VWS V14.01,2013-08-18 18:05:00,
2013-08-18 13:06:00,84.2,41.3,30.08,NE,44,0.0,0.0,22,0.00,,FEW100,0.00,VWS V14.01,2013-08-18 18:06:00,
2013-08-18 13:07:00,84.4,41.4,30.08,NNW,334,0.0,3.6,22,0.00,,FEW100,0.00,VWS V14.01,2013-08-18 18:07:00,
2013-08-18 13:09:00,84.6,41.6,30.08,ESE,118,0.0,3.1,22,0.00,,FEW100,0.00,VWS V14.01,2013-08-18 18:09:00,
2013-08-18 13:11:00,84.7,41.7,30.08,North,3,2.7,2.7,22,0.00,,FEW100,0.00,VWS V14.01,2013-08-18 18:11:00,
2013-08-18 13:13:00,84.7,41.7,30.05,NNE,31,3.1,3.1,22,0.00,,FEW100,0.00,VWS V14.01,2013-08-18 18:13:00,
2013-08-18 13:15:00,84.7,41.7,30.05,NNE,25,4.0,4.0,22,0.00,,FEW100,0.00,VWS V14.01,2013-08-18 18:15:00,
2013-08-18 13:16:00,84.9,41.9,30.05,ENE,75,2.2,2.7,22,0.00,,FEW100,0.00,VWS V14.01,2013-08-18 18:16:00,
2013-08-18 13:17:00,84.9,41.9,30.05,East,96,3.1,3.1,22,0.00,,FEW100,0.00,VWS V14.01,2013-08-18 18:17:00,
2013-08-18 13:18:00,85.1,42.0,30.05,East,97,0.0,2.7,22,0.00,,FEW100,0.00,VWS V14.01,2013-08-18 18:18:00,
2013-08-18 13:19:00,85.5,42.3,30.05,East,91,4.0,4.0,22,0.00,,FEW100,0.00,VWS V14.01,2013-08-18 18:19:00,
2013-08-18 13:20:00,85.5,42.3,30.05,East,93,0.0,3.1,22,0.00,,FEW100,0.00,VWS V14.01,2013-08-18 18:20:00,
2013-08-18 13:21:00,85.6,42.5,30.05,East,94,0.0,2.7,22,0.00,,FEW100,0.00,VWS V14.01,2013-08-18 18:21:00,
2013-08-18 13:22:00,85.8,42.6,30.05,East,94,0.0,0.0,22,0.00,,FEW100,0.00,VWS V14.01,2013-08-18 18:22:00,
2013-08-18 13:24:00,85.8,42.6,30.05,East,94,0.0,0.0,22,0.00,,FEW100,0.00,VWS V14.01,2013-08-18 18:24:00,
2013-08-18 13:25:00,85.6,42.5,30.05,East,94,0.0,0.0,22,0.00,,FEW100,0.00,VWS V14.01,2013-08-18 18:25:00,
2013-08-18 13:26:00,85.5,42.3,30.05,East,94,0.0,0.0,22,0.00,,FEW100,0.00,VWS V14.01,2013-08-18 18:26:00,
2013-08-18 13:28:00,84.9,41.9,30.05,East,98,3.1,3.1,22,0.00,,FEW100,0.00,VWS V14.01,2013-08-18 18:28:00,
2013-08-18 13:29:00,84.7,41.7,30.05,NNE,25,2.2,2.7,22,0.00,,FEW100,0.00,VWS V14.01,2013-08-18 18:29:00,
2013-08-18 13:30:00,84.4,41.4,30.05,NNE,25,0.0,3.1,22,0.00,,FEW100,0.00,VWS V14.01,2013-08-18 18:30:00,
2013-08-18 13:31:00,84.2,41.3,30.05,NNE,25,0.0,0.0,22,0.00,,FEW100,0.00,VWS V14.01,2013-08-18 18:31:00,
2013-08-18 13:32:00,84.2,41.3,30.05,NNE,25,0.0,0.0,22,0.00,,FEW100,0.00,VWS V14.01,2013-08-18 18:32:00,
2013-08-18 13:33:00,84.2,41.3,30.05,NNE,31,3.1,3.1,22,0.00,,FEW100,0.00,VWS V14.01,2013-08-18 18:33:00,
2013-08-18 13:34:00,84.4,41.4,30.05,ENE,61,3.1,3.1,22,0.00,,FEW100,0.00,VWS V14.01,2013-08-18 18:34:00,
2013-08-18 13:35:00,84.6,41.6,30.05,ENE,64,2.7,2.7,22,0.00,,FEW100,0.00,VWS V14.01,2013-08-18 18:35:00,
2013-08-18 13:37:00,84.9,41.9,30.05,NE,38,4.0,4.0,22,0.00,,FEW100,0.00,VWS V14.01,2013-08-18 18:37:00,
2013-08-18 13:39:00,85.6,42.5,30.05,ENE,57,0.0,0.0,22,0.00,,FEW100,0.00,VWS V14.01,2013-08-18 18:39:00,
2013-08-18 13:40:00,85.6,42.5,30.05,ENE,57,0.0,0.0,22,0.00,,FEW100,0.00,VWS V14.01,2013-08-18 18:40:00,
2013-08-18 13:41:00,86.0,42.8,30.05,SE,138,4.0,5.4,22,0.00,,FEW100,0.00,VWS V14.01,2013-08-18 18:41:00,
2013-08-18 13:42:00,86.4,43.1,30.05,SSE,158,3.1,6.3,22,0.00,,FEW100,0.00,VWS V14.01,2013-08-18 18:42:00,
2013-08-18 13:44:00,86.5,43.2,30.05,SSE,159,3.6,5.8,22,0.00,,FEW100,0.00,VWS V14.01,2013-08-18 18:44:00,
2013-08-18 13:45:00,86.7,43.4,30.05,SSE,159,2.7,5.8,22,0.00,,FEW100,0.00,VWS V14.01,2013-08-18 18:45:00,
2013-08-18 13:46:00,86.9,43.5,30.05,South,172,3.6,4.9,22,0.00,,FEW100,0.00,VWS V14.01,2013-08-18 18:46:00,
2013-08-18 13:47:00,86.9,43.5,30.05,South,181,4.0,4.9,22,0.00,,FEW100,0.00,VWS V14.01,2013-08-18 18:47:00,
2013-08-18 13:50:00,87.1,43.7,30.05,SE,143,2.7,4.0,22,0.00,,FEW100,0.00,VWS V14.01,2013-08-18 18:50:00,
2013-08-18 13:51:00,87.1,43.7,30.05,SE,135,2.7,2.7,22,0.00,,FEW100,0.00,VWS V14.01,2013-08-18 18:51:00,
2013-08-18 13:52:00,87.3,43.8,30.05,SE,135,0.0,2.7,22,0.00,,FEW100,0.00,VWS V14.01,2013-08-18 18:52:00,
2013-08-18 13:53:00,87.4,44.0,30.05,SSE,162,6.7,6.7,22,0.00,,FEW100,0.00,VWS V14.01,2013-08-18 18:53:00,
2013-08-18 13:55:00,87.6,44.1,30.05,South,179,7.6,7.6,22,0.00,,FEW100,0.00,VWS V14.01,2013-08-18 18:55:00,
2013-08-18 13:57:00,87.6,44.1,30.05,South,174,4.9,6.3,22,0.00,,FEW100,0.00,VWS V14.01,2013-08-18 18:57:00,
2013-08-18 13:58:00,87.6,44.1,30.05,SSW,205,4.9,4.9,22,0.00,,FEW100,0.00,VWS V14.01,2013-08-18 18:58:00,
2013-08-18 14:01:00,87.3,43.8,30.05,SSE,164,5.8,8.7,22,0.00,,FEW100,0.00,VWS V14.01,2013-08-18 19:01:00,
2013-08-18 14:02:00,87.3,43.8,30.05,East,90,3.1,3.1,22,0.00,,FEW100,0.00,VWS V14.01,2013-08-18 19:02:00,
2013-08-18 14:03:00,87.3,43.8,30.05,ESE,118,2.7,3.1,22,0.00,,FEW100,0.00,VWS V14.01,2013-08-18 19:03:00,
2013-08-18 14:04:00,87.3,43.8,30.05,ENE,72,6.3,6.3,22,0.00,,FEW100,0.00,VWS V14.01,2013-08-18 19:04:00,
2013-08-18 14:06:00,87.4,44.0,30.05,SSE,149,2.7,4.9,22,0.00,,FEW100,0.00,VWS V14.01,2013-08-18 19:06:00,
2013-08-18 14:07:00,87.6,44.1,30.05,South,182,2.7,4.0,22,0.00,,FEW100,0.00,VWS V14.01,2013-08-18 19:07:00,
2013-08-18 14:08:00,87.6,44.1,30.05,SSE,164,4.0,4.0,22,0.00,,FEW100,0.00,VWS V14.01,2013-08-18 19:08:00,
2013-08-18 14:10:00,87.8,41.8,30.05,SE,126,2.7,2.7,20,0.00,,FEW100,0.00,VWS V14.01,2013-08-18 19:10:00,
2013-08-18 14:12:00,87.4,44.0,30.05,SE,130,3.6,3.6,22,0.00,,FEW100,0.00,VWS V14.01,2013-08-18 19:12:00,
2013-08-18 14:13:00,87.4,44.0,30.05,ESE,123,3.1,3.1,22,0.00,,FEW100,0.00,VWS V14.01,2013-08-18 19:13:00,
2013-08-18 14:14:00,87.4,44.0,30.05,ESE,123,0.0,0.0,22,0.00,,FEW100,0.00,VWS V14.01,2013-08-18 19:14:00,
2013-08-18 14:15:00,87.1,43.7,30.05,ESE,123,0.0,0.0,22,0.00,,FEW100,0.00,VWS V14.01,2013-08-18 19:15:00,
2013-08-18 14:17:00,87.1,43.7,30.05,South,181,3.1,3.1,22,0.00,,FEW100,0.00,VWS V14.01,2013-08-18 19:17:00,
2013-08-18 14:18:00,87.1,43.7,30.05,SE,128,4.9,4.9,22,0.00,,FEW100,0.00,VWS V14.01,2013-08-18 19:18:00,
2013-08-18 14:19:00,87.1,43.7,30.05,SSE,152,3.1,4.0,22,0.00,,FEW100,0.00,VWS V14.01,2013-08-18 19:19:00,
2013-08-18 14:21:00,86.9,43.5,30.05,SE,124,2.7,3.1,22,0.00,,FEW100,0.00,VWS V14.01,2013-08-18 19:21:00,
2013-08-18 14:23:00,87.1,43.7,30.05,South,175,2.2,4.0,22,0.00,,FEW100,0.00,VWS V14.01,2013-08-18 19:23:00,
2013-08-18 14:24:00,87.1,43.7,30.05,South,175,2.7,3.6,22,0.00,,FEW100,0.00,VWS V14.01,2013-08-18 19:24:00,
2013-08-18 14:26:00,87.1,43.7,30.05,South,169,2.2,4.9,22,0.00,,FEW100,0.00,VWS V14.01,2013-08-18 19:26:00,
2013-08-18 14:28:00,86.7,43.4,30.05,South,169,2.7,3.6,22,0.00,,FEW100,0.00,VWS V14.01,2013-08-18 19:28:00,
2013-08-18 14:29:00,86.4,43.1,30.05,South,169,0.0,0.0,22,0.00,,FEW100,0.00,VWS V14.01,2013-08-18 19:29:00,
2013-08-18 14:31:00,86.0,42.8,30.05,South,169,0.0,0.0,22,0.00,,FEW100,0.00,VWS V14.01,2013-08-18 19:31:00,
2013-08-18 14:34:00,86.0,42.8,30.05,South,169,0.0,0.0,22,0.00,,FEW100,0.00,VWS V14.01,2013-08-18 19:34:00,
2013-08-18 14:35:00,86.0,42.8,30.05,South,169,0.0,0.0,22,0.00,,FEW100,0.00,VWS V14.01,2013-08-18 19:35:00,
2013-08-18 14:36:00,85.8,42.6,30.05,South,175,0.0,0.0,22,0.00,,FEW100,0.00,VWS V14.01,2013-08-18 19:36:00,
2013-08-18 14:37:00,85.8,42.6,30.05,South,175,0.0,0.0,22,0.00,,FEW100,0.00,VWS V14.01,2013-08-18 19:37:00,
2013-08-18 14:39:00,86.4,43.1,30.05,South,175,0.0,0.0,22,0.00,,FEW100,0.00,VWS V14.01,2013-08-18 19:39:00,
2013-08-18 14:40:00,86.4,43.1,30.05,South,175,0.0,0.0,22,0.00,,FEW100,0.00,VWS V14.01,2013-08-18 19:40:00,
2013-08-18 14:41:00,86.4,43.1,30.05,South,175,0.0,0.0,22,0.00,,FEW100,0.00,VWS V14.01,2013-08-18 19:41:00,
2013-08-18 14:42:00,86.5,43.2,30.05,South,175,0.0,0.0,22,0.00,,FEW100,0.00,VWS V14.01,2013-08-18 19:42:00,
2013-08-18 14:43:00,86.5,43.2,30.05,South,175,0.0,0.0,22,0.00,,FEW100,0.00,VWS V14.01,2013-08-18 19:43:00,
2013-08-18 14:45:00,86.9,43.5,30.05,South,175,0.0,0.0,22,0.00,,FEW100,0.00,VWS V14.01,2013-08-18 19:45:00,
2013-08-18 14:46:00,86.9,43.5,30.05,South,175,0.0,0.0,22,0.00,,FEW100,0.00,VWS V14.01,2013-08-18 19:46:00,
2013-08-18 14:47:00,87.1,43.7,30.05,South,175,0.0,0.0,22,0.00,,FEW100,0.00,VWS V14.01,2013-08-18 19:47:00,
2013-08-18 14:49:00,87.3,43.8,30.05,SSW,202,0.0,0.0,22,0.00,,FEW100,0.00,VWS V14.01,2013-08-18 19:49:00,
2013-08-18 14:50:00,87.3,43.8,30.05,SW,226,2.7,3.6,22,0.00,,FEW100,0.00,VWS V14.01,2013-08-18 19:50:00,
2013-08-18 14:51:00,87.1,43.7,30.05,SW,226,0.0,3.6,22,0.00,,FEW100,0.00,VWS V14.01,2013-08-18 19:51:00,
2013-08-18 14:52:00,87.1,43.7,30.05,SW,226,0.0,0.0,22,0.00,,FEW100,0.00,VWS V14.01,2013-08-18 19:52:00,
2013-08-18 14:54:00,86.9,43.5,30.05,SW,226,0.0,0.0,22,0.00,,FEW100,0.00,VWS V14.01,2013-08-18 19:54:00,
2013-08-18 14:55:00,86.7,43.4,30.05,SW,226,0.0,0.0,22,0.00,,FEW100,0.00,VWS V14.01,2013-08-18 19:55:00,
2013-08-18 14:56:00,86.9,43.5,30.05,SW,226,0.0,0.0,22,0.00,,FEW100,0.00,VWS V14.01,2013-08-18 19:56:00,
2013-08-18 14:57:00,86.9,43.5,30.05,SW,226,0.0,0.0,22,0.00,,FEW100,0.00,VWS V14.01,2013-08-18 19:57:00,
2013-08-18 14:59:00,87.1,43.7,30.05,NE,35,0.0,2.7,22,0.00,,FEW100,0.00,VWS V14.01,2013-08-18 19:59:00,
2013-08-18 15:01:00,87.3,43.8,30.05,NE,36,0.0,0.0,22,0.00,,FEW100,0.00,VWS V14.01,2013-08-18 20:01:00,
2013-08-18 15:02:00,87.6,44.1,30.05,NE,51,0.0,3.6,22,0.00,,FEW100,0.00,VWS V14.01,2013-08-18 20:02:00,
2013-08-18 15:05:00,87.6,44.1,30.05,ENE,64,0.0,0.0,22,0.00,,FEW100,0.00,VWS V14.01,2013-08-18 20:05:00,
2013-08-18 15:06:00,87.6,44.1,30.05,ENE,64,0.0,3.1,22,0.00,,FEW100,0.00,VWS V14.01,2013-08-18 20:06:00,
2013-08-18 15:07:00,87.6,44.1,30.05,ENE,64,0.0,0.0,22,0.00,,FEW100,0.00,VWS V14.01,2013-08-18 20:07:00,
2013-08-18 15:08:00,87.6,44.1,30.05,ENE,64,0.0,0.0,22,0.00,,FEW100,0.00,VWS V14.01,2013-08-18 20:08:00,
2013-08-18 15:09:00,87.6,44.1,30.05,ENE,64,0.0,0.0,22,0.00,,FEW100,0.00,VWS V14.01,2013-08-18 20:09:00,
2013-08-18 15:10:00,87.4,44.0,30.05,ENE,64,0.0,0.0,22,0.00,,FEW100,0.00,VWS V14.01,2013-08-18 20:10:00,
2013-08-18 15:12:00,87.4,44.0,30.05,ENE,64,0.0,0.0,22,0.00,,FEW100,0.00,VWS V14.01,2013-08-18 20:12:00,
2013-08-18 15:13:00,87.4,44.0,30.05,ENE,64,0.0,0.0,22,0.00,,FEW100,0.00,VWS V14.01,2013-08-18 20:13:00,
2013-08-18 15:14:00,87.4,44.0,30.05,ENE,64,0.0,0.0,22,0.00,,FEW100,0.00,VWS V14.01,2013-08-18 20:14:00,
2013-08-18 15:15:00,87.4,44.0,30.05,ENE,64,0.0,0.0,22,0.00,,FEW100,0.00,VWS V14.01,2013-08-18 20:15:00,
2013-08-18 15:17:00,87.3,43.8,30.05,ENE,64,0.0,0.0,22,0.00,,FEW100,0.00,VWS V14.01,2013-08-18 20:17:00,
2013-08-18 15:18:00,87.1,43.7,30.05,ENE,64,0.0,0.0,22,0.00,,FEW100,0.00,VWS V14.01,2013-08-18 20:18:00,
2013-08-18 15:19:00,87.1,43.7,30.05,ENE,64,0.0,0.0,22,0.00,,FEW100,0.00,VWS V14.01,2013-08-18 20:19:00,
2013-08-18 15:20:00,86.9,43.5,30.05,ENE,64,0.0,0.0,22,0.00,,FEW100,0.00,VWS V14.01,2013-08-18 20:20:00,
2013-08-18 15:21:00,86.9,43.5,30.05,ENE,64,3.1,3.1,22,0.00,,FEW100,0.00,VWS V14.01,2013-08-18 20:21:00,
2013-08-18 15:23:00,86.7,43.4,30.05,ENE,64,0.0,0.0,22,0.00,,FEW100,0.00,VWS V14.01,2013-08-18 20:23:00,
2013-08-18 15:24:00,86.5,43.2,30.05,ENE,62,3.6,3.6,22,0.00,,FEW100,0.00,VWS V14.01,2013-08-18 20:24:00,
2013-08-18 15:26:00,85.6,42.5,30.05,NNE,13,0.0,0.0,22,0.00,,FEW100,0.00,VWS V14.01,2013-08-18 20:26:00,
2013-08-18 15:27:00,85.5,42.3,30.02,NNE,13,0.0,0.0,22,0.00,,FEW100,0.00,VWS V14.01,2013-08-18 20:27:00,
2013-08-18 15:29:00,84.7,41.7,30.02,NNE,14,0.0,0.0,22,0.00,,FEW100,0.00,VWS V14.01,2013-08-18 20:29:00,
2013-08-18 15:30:00,84.7,41.7,30.02,NNE,14,0.0,0.0,22,0.00,,FEW100,0.00,VWS V14.01,2013-08-18 20:30:00,
2013-08-18 15:32:00,84.9,41.9,30.02,NNE,15,0.0,2.7,22,0.00,,FEW100,0.00,VWS V14.01,2013-08-18 20:32:00,
2013-08-18 15:33:00,85.3,42.2,30.02,NNE,15,0.0,0.0,22,0.00,,FEW100,0.00,VWS V14.01,2013-08-18 20:33:00,
2013-08-18 15:35:00,85.5,42.3,30.02,NNE,20,0.0,3.1,22,0.00,,FEW100,0.00,VWS V14.01,2013-08-18 20:35:00,
2013-08-18 15:36:00,85.5,42.3,30.02,NE,52,2.7,5.4,22,0.00,,FEW100,0.00,VWS V14.01,2013-08-18 20:36:00,
2013-08-18 15:38:00,86.0,42.8,30.02,ENE,60,0.0,0.0,22,0.00,,FEW100,0.00,VWS V14.01,2013-08-18 20:38:00,
2013-08-18 15:41:00,87.1,43.7,30.02,ENE,60,0.0,0.0,22,0.00,,FEW100,0.00,VWS V14.01,2013-08-18 20:41:00,
2013-08-18 15:42:00,87.1,43.7,30.02,ENE,59,0.0,3.1,22,0.00,,FEW100,0.00,VWS V14.01,2013-08-18 20:42:00,
2013-08-18 15:43:00,87.1,43.7,30.02,SSE,150,0.0,0.0,22,0.00,,FEW100,0.00,VWS V14.01,2013-08-18 20:43:00,
2013-08-18 15:44:00,87.1,43.7,30.02,SSE,151,0.0,0.0,22,0.00,,FEW100,0.00,VWS V14.01,2013-08-18 20:44:00,
2013-08-18 15:46:00,86.9,43.5,30.02,SSE,151,0.0,0.0,22,0.00,,FEW100,0.00,VWS V14.01,2013-08-18 20:46:00,
2013-08-18 15:47:00,86.7,43.4,30.02,SSE,150,0.0,0.0,22,0.00,,FEW100,0.00,VWS V14.01,2013-08-18 20:47:00,
2013-08-18 15:48:00,86.9,43.5,30.02,SSE,151,0.0,0.0,22,0.00,,FEW100,0.00,VWS V14.01,2013-08-18 20:48:00,
2013-08-18 15:50:00,87.1,43.7,30.02,SE,139,2.2,2.2,22,0.00,,FEW100,0.00,VWS V14.01,2013-08-18 20:50:00,
2013-08-18 15:51:00,87.4,44.0,30.02,SE,143,2.2,3.6,22,0.00,,FEW100,0.00,VWS V14.01,2013-08-18 20:51:00,
2013-08-18 15:52:00,87.8,41.8,30.02,SE,146,4.0,4.0,20,0.00,,FEW100,0.00,VWS V14.01,2013-08-18 20:52:00,
2013-08-18 15:53:00,88.2,42.1,30.02,SSE,147,0.0,0.0,20,0.00,,FEW100,0.00,VWS V14.01,2013-08-18 20:53:00,
2013-08-18 15:54:00,88.2,42.1,30.02,SSE,147,0.0,0.0,20,0.00,,FEW100,0.00,VWS V14.01,2013-08-18 20:54:00,
2013-08-18 15:55:00,88.2,42.1,30.02,SSE,147,0.0,0.0,20,0.00,,FEW100,0.00,VWS V14.01,2013-08-18 20:55:00,
2013-08-18 15:57:00,88.2,42.1,30.02,SE,137,0.0,0.0,20,0.00,,FEW100,0.00,VWS V14.01,2013-08-18 20:57:00,
2013-08-18 15:58:00,87.8,41.8,30.02,SE,137,0.0,0.0,20,0.00,,FEW100,0.00,VWS V14.01,2013-08-18 20:58:00,
2013-08-18 15:59:00,87.8,41.8,30.02,SE,137,0.0,0.0,20,0.00,,FEW100,0.00,VWS V14.01,2013-08-18 20:59:00,
2013-08-18 16:00:00,87.6,44.1,30.02,SE,137,0.0,0.0,22,0.00,,FEW100,0.00,VWS V14.01,2013-08-18 21:00:00,
2013-08-18 16:02:00,87.6,44.1,30.02,SE,138,0.0,0.0,22,0.00,,FEW049,0.00,VWS V14.01,2013-08-18 21:02:00,
2013-08-18 16:03:00,87.6,44.1,30.02,SE,146,0.0,0.0,22,0.00,,FEW049,0.00,VWS V14.01,2013-08-18 21:03:00,
2013-08-18 16:05:00,88.2,42.1,30.02,SSE,147,0.0,2.7,20,0.00,,FEW049,0.00,VWS V14.01,2013-08-18 21:05:00,
2013-08-18 16:06:00,88.7,42.5,30.02,SE,146,2.7,2.7,20,0.00,,FEW049,0.00,VWS V14.01,2013-08-18 21:06:00,
2013-08-18 16:08:00,89.2,43.0,30.02,SE,146,2.7,2.7,20,0.00,,FEW049,0.00,VWS V14.01,2013-08-18 21:08:00,
2013-08-18 16:09:00,89.2,43.0,30.02,ENE,66,3.6,3.6,20,0.00,,FEW049,0.00,VWS V14.01,2013-08-18 21:09:00,
2013-08-18 16:11:00,90.1,43.7,30.02,ESE,112,0.0,2.2,20,0.00,,FEW049,0.00,VWS V14.01,2013-08-18 21:11:00,
2013-08-18 16:13:00,90.9,44.3,30.02,East,79,4.0,4.0,20,0.00,,FEW049,0.00,VWS V14.01,2013-08-18 21:13:00,
2013-08-18 16:14:00,91.0,44.4,30.02,East,80,0.0,0.0,20,0.00,,FEW049,0.00,VWS V14.01,2013-08-18 21:14:00,
2013-08-18 16:16:00,91.0,44.4,30.02,SSE,157,2.7,2.7,20,0.00,,FEW049,0.00,VWS V14.01,2013-08-18 21:16:00,
2013-08-18 16:18:00,90.7,44.1,30.02,ESE,120,2.2,3.6,20,0.00,,FEW049,0.00,VWS V14.01,2013-08-18 21:18:00,
2013-08-18 16:19:00,90.3,43.8,30.02,East,101,2.7,2.7,20,0.00,,FEW049,0.00,VWS V14.01,2013-08-18 21:19:00,
2013-08-18 16:20:00,90.3,43.8,30.02,ESE,102,0.0,2.7,20,0.00,,FEW049,0.00,VWS V14.01,2013-08-18 21:20:00,
2013-08-18 16:21:00,90.3,43.8,30.02,East,101,2.7,3.1,20,0.00,,FEW049,0.00,VWS V14.01,2013-08-18 21:21:00,
2013-08-18 16:23:00,90.5,44.0,30.02,ESE,102,0.0,0.0,20,0.00,,FEW049,0.00,VWS V14.01,2013-08-18 21:23:00,
2013-08-18 16:25:00,90.5,44.0,30.02,East,101,0.0,0.0,20,0.00,,FEW049,0.00,VWS V14.01,2013-08-18 21:25:00,
2013-08-18 16:26:00,90.3,43.8,30.02,East,101,0.0,0.0,20,0.00,,FEW049,0.00,VWS V14.01,2013-08-18 21:26:00,
2013-08-18 16:28:00,90.0,43.5,30.02,East,90,3.1,4.0,20,0.00,,FEW049,0.00,VWS V14.01,2013-08-18 21:28:00,
2013-08-18 16:29:00,89.8,43.4,30.02,East,89,3.1,3.1,20,0.00,,FEW049,0.00,VWS V14.01,2013-08-18 21:29:00,
2013-08-18 16:30:00,89.6,43.3,30.02,East,89,0.0,0.0,20,0.00,,FEW049,0.00,VWS V14.01,2013-08-18 21:30:00,
2013-08-18 16:33:00,89.6,43.3,30.02,East,89,2.7,2.7,20,0.00,,FEW049,0.00,VWS V14.01,2013-08-18 21:33:00,
2013-08-18 16:34:00,89.4,43.1,30.02,East,89,0.0,0.0,20,0.00,,FEW049,0.00,VWS V14.01,2013-08-18 21:34:00,
2013-08-18 16:35:00,89.2,43.0,30.02,East,89,0.0,3.1,20,0.00,,FEW049,0.00,VWS V14.01,2013-08-18 21:35:00,
2013-08-18 16:36:00,89.2,43.0,30.02,East,89,0.0,0.0,20,0.00,,FEW049,0.00,VWS V14.01,2013-08-18 21:36:00,
2013-08-18 16:37:00,89.2,43.0,30.02,East,89,0.0,0.0,20,0.00,,FEW049,0.00,VWS V14.01,2013-08-18 21:37:00,
2013-08-18 16:38:00,89.1,42.8,30.02,East,89,0.0,0.0,20,0.00,,FEW049,0.00,VWS V14.01,2013-08-18 21:38:00,
2013-08-18 16:39:00,89.1,42.8,30.02,East,89,0.0,0.0,20,0.00,,FEW049,0.00,VWS V14.01,2013-08-18 21:39:00,
2013-08-18 16:41:00,88.7,42.5,30.02,East,89,0.0,0.0,20,0.00,,FEW049,0.00,VWS V14.01,2013-08-18 21:41:00,
2013-08-18 16:42:00,88.5,42.4,30.02,East,89,0.0,0.0,20,0.00,,FEW049,0.00,VWS V14.01,2013-08-18 21:42:00,
2013-08-18 16:43:00,88.2,42.1,30.02,NNE,21,5.4,5.8,20,0.00,,FEW049,0.00,VWS V14.01,2013-08-18 21:43:00,
2013-08-18 16:44:00,88.0,41.9,30.02,NNE,15,4.9,6.3,20,0.00,,FEW049,0.00,VWS V14.01,2013-08-18 21:44:00,
2013-08-18 16:46:00,87.6,44.1,30.02,NNE,23,0.0,0.0,22,0.00,,FEW049,0.00,VWS V14.01,2013-08-18 21:46:00,
2013-08-18 16:47:00,87.6,44.1,30.02,NNE,23,0.0,0.0,22,0.00,,FEW049,0.00,VWS V14.01,2013-08-18 21:47:00,
2013-08-18 16:49:00,87.6,44.1,30.02,NNE,23,0.0,0.0,22,0.00,,FEW049,0.00,VWS V14.01,2013-08-18 21:49:00,
2013-08-18 16:52:00,87.3,43.8,30.02,NE,51,0.0,2.2,22,0.00,,FEW049,0.00,VWS V14.01,2013-08-18 21:52:00,
2013-08-18 16:53:00,87.3,43.8,30.02,NE,51,0.0,0.0,22,0.00,,FEW049,0.00,VWS V14.01,2013-08-18 21:53:00,
2013-08-18 16:54:00,87.1,43.7,30.02,ENE,66,0.0,0.0,22,0.00,,FEW049,0.00,VWS V14.01,2013-08-18 21:54:00,
2013-08-18 16:56:00,86.9,43.5,30.02,SSE,158,3.1,4.0,22,0.00,,FEW049,0.00,VWS V14.01,2013-08-18 21:56:00,
2013-08-18 16:57:00,87.1,43.7,30.02,SSE,156,2.7,4.9,22,0.00,,FEW049,0.00,VWS V14.01,2013-08-18 21:57:00,
2013-08-18 16:58:00,87.1,43.7,30.02,SSE,167,3.1,3.1,22,0.00,,FEW049,0.00,VWS V14.01,2013-08-18 21:58:00,
2013-08-18 16:59:00,87.3,43.8,30.02,SE,139,2.2,3.6,22,0.00,,FEW049,0.00,VWS V14.01,2013-08-18 21:59:00,
2013-08-18 17:02:00,87.3,43.8,30.02,SE,140,2.2,3.1,22,0.00,,FEW055,0.00,VWS V14.01,2013-08-18 22:02:00,
2013-08-18 17:03:00,87.1,43.7,30.02,ESE,119,0.0,3.6,22,0.00,,FEW055,0.00,VWS V14.01,2013-08-18 22:03:00,
2013-08-18 17:04:00,87.1,43.7,30.02,ESE,119,0.0,2.2,22,0.00,,FEW055,0.00,VWS V14.01,2013-08-18 22:04:00,
2013-08-18 17:05:00,87.1,43.7,30.02,ESE,119,0.0,0.0,22,0.00,,FEW055,0.00,VWS V14.01,2013-08-18 22:05:00,
2013-08-18 17:07:00,87.3,43.8,30.02,ESE,119,0.0,0.0,22,0.00,,FEW055,0.00,VWS V14.01,2013-08-18 22:07:00,
2013-08-18 17:08:00,87.3,43.8,30.02,ESE,119,0.0,3.1,22,0.00,,FEW055,0.00,VWS V14.01,2013-08-18 22:08:00,
2013-08-18 17:09:00,87.3,43.8,30.02,ESE,120,0.0,3.1,22,0.00,,FEW055,0.00,VWS V14.01,2013-08-18 22:09:00,
2013-08-18 17:10:00,87.6,44.1,30.02,ESE,120,0.0,2.7,22,0.00,,FEW055,0.00,VWS V14.01,2013-08-18 22:10:00,
2013-08-18 17:13:00,88.0,41.9,30.02,SE,138,2.7,3.1,20,0.00,,FEW055,0.00,VWS V14.01,2013-08-18 22:13:00,
2013-08-18 17:14:00,88.0,41.9,30.02,SE,138,3.1,3.1,20,0.00,,FEW055,0.00,VWS V14.01,2013-08-18 22:14:00,
2013-08-18 17:15:00,87.8,41.8,30.02,SE,138,2.2,3.1,20,0.00,,FEW055,0.00,VWS V14.01,2013-08-18 22:15:00,
2013-08-18 17:17:00,87.4,44.0,30.02,SE,138,0.0,0.0,22,0.00,,FEW055,0.00,VWS V14.01,2013-08-18 22:17:00,
2013-08-18 17:19:00,87.3,43.8,30.02,SE,138,0.0,0.0,22,0.00,,FEW055,0.00,VWS V14.01,2013-08-18 22:19:00,
2013-08-18 17:20:00,87.1,43.7,30.02,SE,138,0.0,0.0,22,0.00,,FEW055,0.00,VWS V14.01,2013-08-18 22:20:00,
2013-08-18 17:21:00,86.9,43.5,30.02,SE,138,0.0,0.0,22,0.00,,FEW055,0.00,VWS V14.01,2013-08-18 22:21:00,
2013-08-18 17:24:00,86.7,43.4,30.02,SE,138,0.0,0.0,22,0.00,,FEW055,0.00,VWS V14.01,2013-08-18 22:24:00,
2013-08-18 17:25:00,86.7,43.4,30.02,SE,138,0.0,0.0,22,0.00,,FEW055,0.00,VWS V14.01,2013-08-18 22:25:00,
2013-08-18 17:26:00,86.9,43.5,30.02,SE,138,0.0,0.0,22,0.00,,FEW055,0.00,VWS V14.01,2013-08-18 22:26:00,
2013-08-18 17:29:00,87.8,41.8,30.02,SE,138,0.0,0.0,20,0.00,,FEW055,0.00,VWS V14.01,2013-08-18 22:29:00,
2013-08-18 17:30:00,88.2,42.1,30.02,SE,138,0.0,0.0,20,0.00,,FEW055,0.00,VWS V14.01,2013-08-18 22:30:00,
2013-08-18 17:31:00,88.3,42.2,30.02,SE,138,0.0,0.0,20,0.00,,FEW055,0.00,VWS V14.01,2013-08-18 22:31:00,
2013-08-18 17:33:00,88.7,42.5,30.02,SE,138,0.0,0.0,20,0.00,,FEW055,0.00,VWS V14.01,2013-08-18 22:33:00,
2013-08-18 17:35:00,88.7,42.5,30.02,SE,138,0.0,0.0,20,0.00,,FEW055,0.00,VWS V14.01,2013-08-18 22:35:00,
2013-08-18 17:36:00,88.5,42.4,30.02,SE,138,0.0,0.0,20,0.00,,FEW055,0.00,VWS V14.01,2013-08-18 22:36:00,
2013-08-18 17:37:00,88.5,42.4,30.02,SE,138,0.0,0.0,20,0.00,,FEW055,0.00,VWS V14.01,2013-08-18 22:37:00,
2013-08-18 17:38:00,88.5,42.4,30.02,SE,138,0.0,0.0,20,0.00,,FEW055,0.00,VWS V14.01,2013-08-18 22:38:00,
2013-08-18 17:40:00,88.7,42.5,30.02,SE,138,0.0,0.0,20,0.00,,FEW055,0.00,VWS V14.01,2013-08-18 22:40:00,
2013-08-18 17:42:00,88.9,42.7,30.02,SE,138,0.0,0.0,20,0.00,,FEW055,0.00,VWS V14.01,2013-08-18 22:42:00,
2013-08-18 17:43:00,88.9,42.7,30.02,SE,138,0.0,0.0,20,0.00,,FEW055,0.00,VWS V14.01,2013-08-18 22:43:00,
2013-08-18 17:44:00,88.7,42.5,30.02,SE,138,0.0,3.1,20,0.00,,FEW055,0.00,VWS V14.01,2013-08-18 22:44:00,
2013-08-18 17:45:00,88.5,42.4,30.02,SE,138,0.0,2.7,20,0.00,,FEW055,0.00,VWS V14.01,2013-08-18 22:45:00,
2013-08-18 17:48:00,88.5,42.4,30.02,SSE,147,0.0,0.0,20,0.00,,FEW055,0.00,VWS V14.01,2013-08-18 22:48:00,
2013-08-18 17:49:00,88.7,42.5,30.02,SSE,147,0.0,0.0,20,0.00,,FEW055,0.00,VWS V14.01,2013-08-18 22:49:00,
2013-08-18 17:50:00,88.7,42.5,30.02,SSE,147,0.0,0.0,20,0.00,,FEW055,0.00,VWS V14.01,2013-08-18 22:50:00,
2013-08-18 17:53:00,88.7,42.5,30.02,SSE,147,0.0,0.0,20,0.00,,FEW055,0.00,VWS V14.01,2013-08-18 22:53:00,
2013-08-18 17:56:00,88.9,42.7,30.02,SE,146,0.0,0.0,20,0.00,,FEW055,0.00,VWS V14.01,2013-08-18 22:56:00,
2013-08-18 17:58:00,88.9,42.7,30.02,SE,145,0.0,0.0,20,0.00,,FEW055,0.00,VWS V14.01,2013-08-18 22:58:00,
2013-08-18 18:00:00,89.1,42.8,30.02,SE,145,0.0,0.0,20,0.00,,FEW055,0.00,VWS V14.01,2013-08-18 23:00:00,
2013-08-18 18:02:00,89.4,43.1,30.02,SE,145,0.0,0.0,20,0.00,,FEW048,0.00,VWS V14.01,2013-08-18 23:02:00,
2013-08-18 18:03:00,89.6,43.3,30.02,SW,231,6.3,6.3,20,0.00,,FEW048,0.00,VWS V14.01,2013-08-18 23:03:00,
2013-08-18 18:04:00,89.6,43.3,30.02,SW,225,4.9,6.3,20,0.00,,FEW048,0.00,VWS V14.01,2013-08-18 23:04:00,
2013-08-18 18:05:00,89.6,43.3,30.02,SSW,213,2.7,4.0,20,0.00,,FEW048,0.00,VWS V14.01,2013-08-18 23:05:00,
2013-08-18 18:07:00,89.4,43.1,30.02,South,185,5.4,5.8,20,0.00,,FEW048,0.00,VWS V14.01,2013-08-18 23:07:00,
2013-08-18 18:08:00,89.2,43.0,30.02,South,182,3.6,4.9,20,0.00,,FEW048,0.00,VWS V14.01,2013-08-18 23:08:00,
2013-08-18 18:09:00,89.2,43.0,30.02,South,182,4.9,4.9,20,0.00,,FEW048,0.00,VWS V14.01,2013-08-18 23:09:00,
2013-08-18 18:10:00,88.9,42.7,30.02,SSW,199,3.6,3.6,20,0.00,,FEW048,0.00,VWS V14.01,2013-08-18 23:10:00,
2013-08-18 18:12:00,88.7,42.5,30.02,SSW,209,4.9,4.9,20,0.00,,FEW048,0.00,VWS V14.01,2013-08-18 23:12:00,
2013-08-18 18:14:00,88.5,42.4,30.02,South,175,4.0,4.0,20,0.00,,FEW048,0.00,VWS V14.01,2013-08-18 23:14:00,
2013-08-18 18:16:00,88.2,42.1,30.02,SSE,162,2.7,7.6,20,0.00,,FEW048,0.00,VWS V14.01,2013-08-18 23:16:00,
2013-08-18 18:17:00,88.2,42.1,30.02,SSE,162,2.7,3.1,20,0.00,,FEW048,0.00,VWS V14.01,2013-08-18 23:17:00,
2013-08-18 18:18:00,88.2,42.1,30.02,SW,226,2.7,4.9,20,0.00,,FEW048,0.00,VWS V14.01,2013-08-18 23:18:00,
2013-08-18 18:20:00,87.8,41.8,30.02,South,190,5.4,5.8,20,0.00,,FEW048,0.00,VWS V14.01,2013-08-18 23:20:00,
2013-08-18 18:21:00,87.6,44.1,30.02,SSW,208,6.3,6.3,22,0.00,,FEW048,0.00,VWS V14.01,2013-08-18 23:21:00,
2013-08-18 18:22:00,87.6,44.1,30.02,South,182,4.9,4.9,22,0.00,,FEW048,0.00,VWS V14.01,2013-08-18 23:22:00,
2013-08-18 18:23:00,87.3,43.8,30.02,SSW,194,4.0,5.4,22,0.00,,FEW048,0.00,VWS V14.01,2013-08-18 23:23:00,
2013-08-18 18:24:00,87.3,43.8,30.02,South,191,3.1,4.0,22,0.00,,FEW048,0.00,VWS V14.01,2013-08-18 23:24:00,
2013-08-18 18:26:00,86.9,43.5,30.02,South,187,2.7,3.6,22,0.00,,FEW048,0.00,VWS V14.01,2013-08-18 23:26:00,
2013-08-18 18:27:00,86.9,43.5,30.02,South,186,3.6,4.0,22,0.00,,FEW048,0.00,VWS V14.01,2013-08-18 23:27:00,
2013-08-18 18:29:00,86.7,43.4,30.02,South,186,2.7,2.7,22,0.00,,FEW048,0.00,VWS V14.01,2013-08-18 23:29:00,
2013-08-18 18:31:00,86.7,43.4,30.02,South,186,3.1,3.1,22,0.00,,FEW048,0.00,VWS V14.01,2013-08-18 23:31:00,
2013-08-18 18:32:00,86.7,43.4,30.02,SSW,192,4.0,4.0,22,0.00,,FEW048,0.00,VWS V14.01,2013-08-18 23:32:00,
2013-08-18 18:34:00,86.7,43.4,30.02,SSW,192,2.7,3.1,22,0.00,,FEW048,0.00,VWS V14.01,2013-08-18 23:34:00,
2013-08-18 18:36:00,86.5,43.2,30.02,SSW,192,0.0,0.0,22,0.00,,FEW048,0.00,VWS V14.01,2013-08-18 23:36:00,
2013-08-18 18:37:00,86.5,43.2,30.02,SSW,192,0.0,0.0,22,0.00,,FEW048,0.00,VWS V14.01,2013-08-18 23:37:00,
2013-08-18 18:41:00,86.4,43.1,30.02,South,181,2.7,4.0,22,0.00,,FEW048,0.00,VWS V14.01,2013-08-18 23:41:00,
2013-08-18 18:42:00,86.4,43.1,30.02,SSW,193,3.6,3.6,22,0.00,,FEW048,0.00,VWS V14.01,2013-08-18 23:42:00,
2013-08-18 18:43:00,86.2,42.9,30.02,South,190,2.7,4.0,22,0.00,,FEW048,0.00,VWS V14.01,2013-08-18 23:43:00,
2013-08-18 18:44:00,86.0,42.8,30.02,SSE,167,4.0,4.0,22,0.00,,FEW048,0.00,VWS V14.01,2013-08-18 23:44:00,
2013-08-18 18:46:00,85.6,42.5,30.02,South,169,2.7,3.1,22,0.00,,FEW048,0.00,VWS V14.01,2013-08-18 23:46:00,
2013-08-18 18:47:00,85.6,42.5,30.02,SSE,168,2.7,3.1,22,0.00,,FEW048,0.00,VWS V14.01,2013-08-18 23:47:00,
2013-08-18 18:48:00,85.5,42.3,30.02,South,169,2.7,3.1,22,0.00,,FEW048,0.00,VWS V14.01,2013-08-18 23:48:00,
2013-08-18 18:49:00,85.5,42.3,30.02,SSE,168,2.2,2.7,22,0.00,,FEW048,0.00,VWS V14.01,2013-08-18 23:49:00,
2013-08-18 18:50:00,85.3,42.2,30.02,SSE,168,2.7,3.1,22,0.00,,FEW048,0.00,VWS V14.01,2013-08-18 23:50:00,
2013-08-18 18:52:00,85.1,42.0,30.02,SSE,168,0.0,0.0,22,0.00,,FEW048,0.00,VWS V14.01,2013-08-18 23:52:00,
2013-08-18 18:53:00,85.1,42.0,30.02,South,169,0.0,0.0,22,0.00,,FEW048,0.00,VWS V14.01,2013-08-18 23:53:00,
2013-08-18 18:54:00,85.1,42.0,30.02,SSE,168,0.0,0.0,22,0.00,,FEW048,0.00,VWS V14.01,2013-08-18 23:54:00,
2013-08-18 18:55:00,85.1,42.0,30.02,SSE,168,0.0,0.0,22,0.00,,FEW048,0.00,VWS V14.01,2013-08-18 23:55:00,
2013-08-18 18:58:00,85.1,42.0,30.02,South,169,0.0,0.0,22,0.00,,FEW048,0.00,VWS V14.01,2013-08-18 23:58:00,
2013-08-18 18:59:00,85.1,42.0,30.02,SSE,168,0.0,0.0,22,0.00,,FEW048,0.00,VWS V14.01,2013-08-18 23:59:00,
2013-08-18 19:00:00,85.1,42.0,30.02,SSE,168,0.0,0.0,22,0.00,,FEW048,0.00,VWS V14.01,2013-08-19 00:00:00,
2013-08-18 19:02:00,85.1,42.0,30.02,South,169,0.0,0.0,22,0.00,,CLR,0.00,VWS V14.01,2013-08-19 00:02:00,
2013-08-18 19:03:00,85.3,42.2,30.02,SSE,168,0.0,0.0,22,0.00,,CLR,0.00,VWS V14.01,2013-08-19 00:03:00,
2013-08-18 19:04:00,85.3,42.2,30.02,SSE,168,0.0,0.0,22,0.00,,CLR,0.00,VWS V14.01,2013-08-19 00:04:00,
2013-08-18 19:05:00,85.3,42.2,30.02,SSE,168,0.0,0.0,22,0.00,,CLR,0.00,VWS V14.01,2013-08-19 00:05:00,
2013-08-18 19:07:00,85.3,42.2,30.02,South,169,0.0,0.0,22,0.00,,CLR,0.00,VWS V14.01,2013-08-19 00:07:00,
2013-08-18 19:08:00,85.3,42.2,30.02,SSE,168,0.0,0.0,22,0.00,,CLR,0.00,VWS V14.01,2013-08-19 00:08:00,
2013-08-18 19:09:00,85.3,42.2,30.02,SSE,168,0.0,0.0,22,0.00,,CLR,0.00,VWS V14.01,2013-08-19 00:09:00,
2013-08-18 19:10:00,85.3,42.2,30.02,SSE,168,0.0,0.0,22,0.00,,CLR,0.00,VWS V14.01,2013-08-19 00:10:00,
2013-08-18 19:11:00,85.1,42.0,30.02,South,169,0.0,0.0,22,0.00,,CLR,0.00,VWS V14.01,2013-08-19 00:11:00,
2013-08-18 19:12:00,85.1,42.0,30.02,SSE,168,0.0,0.0,22,0.00,,CLR,0.00,VWS V14.01,2013-08-19 00:12:00,
2013-08-18 19:14:00,84.9,41.9,30.02,SSE,168,0.0,0.0,22,0.00,,CLR,0.00,VWS V14.01,2013-08-19 00:14:00,
2013-08-18 19:15:00,84.7,41.7,30.02,SSE,168,0.0,0.0,22,0.00,,CLR,0.00,VWS V14.01,2013-08-19 00:15:00,
2013-08-18 19:17:00,84.2,41.3,30.02,South,169,0.0,0.0,22,0.00,,CLR,0.00,VWS V14.01,2013-08-19 00:17:00,
2013-08-18 19:18:00,84.0,41.1,30.02,SSE,168,0.0,0.0,22,0.00,,CLR,0.00,VWS V14.01,2013-08-19 00:18:00,
2013-08-18 19:19:00,84.0,41.1,30.02,SSE,168,0.0,0.0,22,0.00,,CLR,0.00,VWS V14.01,2013-08-19 00:19:00,
2013-08-18 19:20:00,83.7,40.8,30.02,South,169,0.0,0.0,22,0.00,,CLR,0.00,VWS V14.01,2013-08-19 00:20:00,
2013-08-18 19:23:00,83.1,40.4,30.02,South,169,0.0,0.0,22,0.00,,CLR,0.00,VWS V14.01,2013-08-19 00:23:00,
2013-08-18 19:24:00,82.8,40.1,30.02,SSE,168,0.0,0.0,22,0.00,,CLR,0.00,VWS V14.01,2013-08-19 00:24:00,
2013-08-18 19:25:00,82.6,39.9,30.02,SSE,168,0.0,0.0,22,0.00,,CLR,0.00,VWS V14.01,2013-08-19 00:25:00,
2013-08-18 19:27:00,82.2,41.9,30.02,SSE,168,0.0,0.0,24,0.00,,CLR,0.00,VWS V14.01,2013-08-19 00:27:00,
2013-08-18 19:29:00,81.7,41.4,30.02,South,169,0.0,0.0,24,0.00,,CLR,0.00,VWS V14.01,2013-08-19 00:29:00,
2013-08-18 19:30:00,81.5,41.3,30.02,SSE,168,0.0,0.0,24,0.00,,CLR,0.00,VWS V14.01,2013-08-19 00:30:00,
2013-08-18 19:31:00,81.5,41.3,30.02,SSE,168,0.0,0.0,24,0.00,,CLR,0.00,VWS V14.01,2013-08-19 00:31:00,
2013-08-18 19:32:00,81.1,41.0,30.02,SSE,168,0.0,0.0,24,0.00,,CLR,0.00,VWS V14.01,2013-08-19 00:32:00,
2013-08-18 19:34:00,80.6,40.5,30.02,SSE,168,0.0,0.0,24,0.00,,CLR,0.00,VWS V14.01,2013-08-19 00:34:00,
2013-08-18 19:36:00,80.1,40.1,30.02,South,169,0.0,0.0,24,0.00,,CLR,0.00,VWS V14.01,2013-08-19 00:36:00,
2013-08-18 19:37:00,79.7,39.8,30.02,SSE,168,0.0,0.0,24,0.00,,CLR,0.00,VWS V14.01,2013-08-19 00:37:00,
2013-08-18 19:38:00,79.0,39.2,30.02,SSE,168,0.0,0.0,24,0.00,,CLR,0.00,VWS V14.01,2013-08-19 00:38:00,
2013-08-18 19:39:00,79.0,39.2,30.02,SSE,168,0.0,0.0,24,0.00,,CLR,0.00,VWS V14.01,2013-08-19 00:39:00,
2013-08-18 19:42:00,78.1,40.4,30.02,South,169,0.0,0.0,26,0.00,,CLR,0.00,VWS V14.01,2013-08-19 00:42:00,
2013-08-18 19:43:00,77.7,40.1,30.02,SSE,168,0.0,0.0,26,0.00,,CLR,0.00,VWS V14.01,2013-08-19 00:43:00,
2013-08-18 19:45:00,77.4,39.8,30.02,SSE,168,0.0,0.0,26,0.00,,CLR,0.00,VWS V14.01,2013-08-19 00:45:00,
2013-08-18 19:47:00,76.8,39.4,30.02,SSE,168,0.0,0.0,26,0.00,,CLR,0.00,VWS V14.01,2013-08-19 00:47:00,
2013-08-18 19:48:00,76.5,39.1,30.02,SSE,168,0.0,0.0,26,0.00,,CLR,0.00,VWS V14.01,2013-08-19 00:48:00,
2013-08-18 19:49:00,76.5,39.1,30.02,South,169,0.0,0.0,26,0.00,,CLR,0.00,VWS V14.01,2013-08-19 00:49:00,
2013-08-18 19:50:00,76.1,38.8,30.02,SSE,168,0.0,0.0,26,0.00,,CLR,0.00,VWS V14.01,2013-08-19 00:50:00,
2013-08-18 19:52:00,75.4,38.2,30.02,South,169,0.0,0.0,26,0.00,,CLR,0.00,VWS V14.01,2013-08-19 00:52:00,
2013-08-18 19:53:00,75.4,38.2,30.02,South,169,0.0,0.0,26,0.00,,CLR,0.00,VWS V14.01,2013-08-19 00:53:00,
2013-08-18 19:54:00,75.0,37.8,30.02,SSE,168,0.0,0.0,26,0.00,,CLR,0.00,VWS V14.01,2013-08-19 00:54:00,
2013-08-18 19:56:00,74.7,37.5,30.02,SSE,168,0.0,0.0,26,0.00,,CLR,0.00,VWS V14.01,2013-08-19 00:56:00,
2013-08-18 19:58:00,74.3,37.2,30.02,South,169,0.0,0.0,26,0.00,,CLR,0.00,VWS V14.01,2013-08-19 00:58:00,
2013-08-18 19:59:00,74.1,37.1,30.02,South,169,0.0,0.0,26,0.00,,CLR,0.00,VWS V14.01,2013-08-19 00:59:00,
2013-08-18 20:00:00,74.1,37.1,30.02,SSE,168,0.0,0.0,26,0.00,,CLR,0.00,VWS V14.01,2013-08-19 01:00:00,
2013-08-18 20:01:00,73.8,36.8,30.02,South,169,0.0,0.0,26,0.00,,CLR,0.00,VWS V14.01,2013-08-19 01:01:00,
2013-08-18 20:05:00,73.2,41.6,30.02,South,169,0.0,0.0,32,0.00,,CLR,0.00,VWS V14.01,2013-08-19 01:05:00,
2013-08-18 20:06:00,73.0,41.5,30.02,SSE,168,0.0,0.0,32,0.00,,CLR,0.00,VWS V14.01,2013-08-19 01:06:00,
2013-08-18 20:10:00,72.7,41.2,30.02,SSE,168,0.0,0.0,32,0.00,,CLR,0.00,VWS V14.01,2013-08-19 01:10:00,
2013-08-18 20:11:00,72.5,41.0,30.02,SSE,168,0.0,0.0,32,0.00,,CLR,0.00,VWS V14.01,2013-08-19 01:11:00,
2013-08-18 20:12:00,72.5,45.5,30.02,SSE,168,0.0,0.0,38,0.00,,CLR,0.00,VWS V14.01,2013-08-19 01:12:00,
2013-08-18 20:16:00,72.1,45.2,30.02,South,169,0.0,0.0,38,0.00,,CLR,0.00,VWS V14.01,2013-08-19 01:16:00,
2013-08-18 20:17:00,72.1,45.2,30.02,South,169,0.0,0.0,38,0.00,,CLR,0.00,VWS V14.01,2013-08-19 01:17:00,
2013-08-18 20:18:00,72.0,45.0,30.02,SSE,168,0.0,0.0,38,0.00,,CLR,0.00,VWS V14.01,2013-08-19 01:18:00,
2013-08-18 20:21:00,71.6,47.3,30.02,SSE,168,0.0,0.0,42,0.00,,CLR,0.00,VWS V14.01,2013-08-19 01:21:00,
2013-08-18 20:22:00,71.4,48.4,30.02,South,169,0.0,0.0,44,0.00,,CLR,0.00,VWS V14.01,2013-08-19 01:22:00,
2013-08-18 20:23:00,71.4,48.4,30.02,SSE,168,0.0,0.0,44,0.00,,CLR,0.00,VWS V14.01,2013-08-19 01:23:00,
2013-08-18 20:26:00,71.4,48.4,30.02,SSE,168,0.0,2.2,44,0.00,,CLR,0.00,VWS V14.01,2013-08-19 01:26:00,
2013-08-18 20:27:00,71.2,48.2,30.02,South,169,0.0,0.0,44,0.00,,CLR,0.00,VWS V14.01,2013-08-19 01:27:00,
2013-08-18 20:28:00,71.2,48.2,30.02,South,169,0.0,0.0,44,0.00,,CLR,0.00,VWS V14.01,2013-08-19 01:28:00,
2013-08-18 20:32:00,71.2,48.2,30.02,South,169,2.2,2.7,44,0.00,,CLR,0.00,VWS V14.01,2013-08-19 01:32:00,
2013-08-18 20:33:00,71.2,48.2,30.02,SSE,168,2.2,2.7,44,0.00,,CLR,0.00,VWS V14.01,2013-08-19 01:33:00,
2013-08-18 20:35:00,71.2,48.2,30.02,SSE,168,0.0,2.2,44,0.00,,CLR,0.00,VWS V14.01,2013-08-19 01:35:00,
2013-08-18 20:37:00,71.1,48.1,30.02,South,169,0.0,0.0,44,0.00,,CLR,0.00,VWS V14.01,2013-08-19 01:37:00,
2013-08-18 20:39:00,71.1,48.1,30.02,SSE,168,0.0,0.0,44,0.00,,CLR,0.00,VWS V14.01,2013-08-19 01:39:00,
2013-08-18 20:40:00,71.1,48.1,30.02,SSE,168,0.0,0.0,44,0.00,,CLR,0.00,VWS V14.01,2013-08-19 01:40:00,
2013-08-18 20:43:00,70.7,47.7,30.02,SSE,168,0.0,3.1,44,0.00,,CLR,0.00,VWS V14.01,2013-08-19 01:43:00,
2013-08-18 20:44:00,70.7,47.7,30.02,SSE,168,0.0,2.2,44,0.00,,CLR,0.00,VWS V14.01,2013-08-19 01:44:00,
2013-08-18 20:45:00,70.5,47.6,30.02,SSE,168,0.0,0.0,44,0.00,,CLR,0.00,VWS V14.01,2013-08-19 01:45:00,
2013-08-18 20:48:00,70.5,47.6,30.02,South,169,0.0,0.0,44,0.00,,CLR,0.00,VWS V14.01,2013-08-19 01:48:00,
2013-08-18 20:50:00,70.5,48.8,30.02,South,169,0.0,0.0,46,0.00,,CLR,0.00,VWS V14.01,2013-08-19 01:50:00,
2013-08-18 20:51:00,70.3,48.6,30.02,SSE,168,0.0,0.0,46,0.00,,CLR,0.00,VWS V14.01,2013-08-19 01:51:00,
2013-08-18 20:53:00,70.3,48.6,30.02,SSE,168,0.0,0.0,46,0.00,,CLR,0.00,VWS V14.01,2013-08-19 01:53:00,
2013-08-18 20:54:00,70.3,48.6,30.02,SSE,168,0.0,0.0,46,0.00,,CLR,0.00,VWS V14.01,2013-08-19 01:54:00,
2013-08-18 20:55:00,70.3,48.6,30.02,South,169,0.0,0.0,46,0.00,,CLR,0.00,VWS V14.01,2013-08-19 01:55:00,
2013-08-18 20:56:00,70.3,48.6,30.02,SSE,168,0.0,0.0,46,0.00,,CLR,0.00,VWS V14.01,2013-08-19 01:56:00,
2013-08-18 20:59:00,70.2,48.4,30.02,South,169,0.0,0.0,46,0.00,,CLR,0.00,VWS V14.01,2013-08-19 01:59:00,
2013-08-18 21:00:00,70.2,48.4,30.02,SSE,168,0.0,0.0,46,0.00,,CLR,0.00,VWS V14.01,2013-08-19 02:00:00,
2013-08-18 21:01:00,70.2,48.4,30.02,South,169,0.0,0.0,46,0.00,,CLR,0.00,VWS V14.01,2013-08-19 02:01:00,
2013-08-18 21:02:00,70.0,48.3,30.02,South,169,0.0,0.0,46,0.00,,CLR,0.00,VWS V14.01,2013-08-19 02:02:00,
2013-08-18 21:04:00,70.0,48.3,30.02,SSE,168,0.0,0.0,46,0.00,,CLR,0.00,VWS V14.01,2013-08-19 02:04:00,
2013-08-18 21:05:00,70.0,48.3,30.02,South,169,0.0,0.0,46,0.00,,CLR,0.00,VWS V14.01,2013-08-19 02:05:00,
2013-08-18 21:06:00,69.8,48.1,30.02,SSE,168,0.0,0.0,46,0.00,,CLR,0.00,VWS V14.01,2013-08-19 02:06:00,
2013-08-18 21:07:00,69.8,48.1,30.02,South,169,0.0,0.0,46,0.00,,CLR,0.00,VWS V14.01,2013-08-19 02:07:00,
2013-08-18 21:10:00,69.6,48.0,30.02,SSE,168,0.0,0.0,46,0.00,,CLR,0.00,VWS V14.01,2013-08-19 02:10:00,
2013-08-18 21:11:00,69.6,48.0,30.02,SSE,168,0.0,0.0,46,0.00,,CLR,0.00,VWS V14.01,2013-08-19 02:11:00,
2013-08-18 21:14:00,69.4,47.8,30.02,SSE,168,0.0,0.0,46,0.00,,CLR,0.00,VWS V14.01,2013-08-19 02:14:00,
2013-08-18 21:15:00,69.3,48.8,30.02,South,169,0.0,0.0,48,0.00,,CLR,0.00,VWS V14.01,2013-08-19 02:15:00,
2013-08-18 21:16:00,69.3,48.8,30.02,SSE,168,0.0,0.0,48,0.00,,CLR,0.00,VWS V14.01,2013-08-19 02:16:00,
2013-08-18 21:19:00,68.9,48.4,30.02,SSE,168,0.0,0.0,48,0.00,,CLR,0.00,VWS V14.01,2013-08-19 02:19:00,
2013-08-18 21:20:00,68.9,48.4,30.02,SSE,168,0.0,0.0,48,0.00,,CLR,0.00,VWS V14.01,2013-08-19 02:20:00,
2013-08-18 21:21:00,68.7,48.3,30.02,SSE,168,0.0,0.0,48,0.00,,CLR,0.00,VWS V14.01,2013-08-19 02:21:00,
2013-08-18 21:22:00,68.7,49.3,30.02,SSE,168,0.0,0.0,50,0.00,,CLR,0.00,VWS V14.01,2013-08-19 02:22:00,
2013-08-18 21:24:00,68.5,49.2,30.02,SSE,168,0.0,0.0,50,0.00,,CLR,0.00,VWS V14.01,2013-08-19 02:24:00,
2013-08-18 21:25:00,68.5,49.2,30.02,South,169,0.0,0.0,50,0.00,,CLR,0.00,VWS V14.01,2013-08-19 02:25:00,
2013-08-18 21:27:00,68.5,49.2,30.02,South,169,0.0,0.0,50,0.00,,CLR,0.00,VWS V14.01,2013-08-19 02:27:00,
2013-08-18 21:28:00,68.4,49.0,30.02,South,169,0.0,0.0,50,0.00,,CLR,0.00,VWS V14.01,2013-08-19 02:28:00,
2013-08-18 21:29:00,68.4,49.0,30.02,SSE,168,0.0,0.0,50,0.00,,CLR,0.00,VWS V14.01,2013-08-19 02:29:00,
2013-08-18 21:32:00,68.4,50.1,30.02,SSE,168,0.0,0.0,52,0.00,,CLR,0.00,VWS V14.01,2013-08-19 02:32:00,
2013-08-18 21:33:00,68.4,50.1,30.02,SSE,168,0.0,0.0,52,0.00,,CLR,0.00,VWS V14.01,2013-08-19 02:33:00,
2013-08-18 21:34:00,68.4,50.1,30.02,South,169,0.0,0.0,52,0.00,,CLR,0.00,VWS V14.01,2013-08-19 02:34:00,
2013-08-18 21:38:00,68.7,49.3,30.02,SSE,168,0.0,0.0,50,0.00,,CLR,0.00,VWS V14.01,2013-08-19 02:38:00,
2013-08-18 21:40:00,69.1,48.6,30.02,South,169,0.0,0.0,48,0.00,,CLR,0.00,VWS V14.01,2013-08-19 02:40:00,
2013-08-18 21:41:00,69.1,48.6,30.02,South,169,0.0,0.0,48,0.00,,CLR,0.00,VWS V14.01,2013-08-19 02:41:00,
2013-08-18 21:43:00,69.3,48.8,30.05,SSE,168,0.0,0.0,48,0.00,,CLR,0.00,VWS V14.01,2013-08-19 02:43:00,
2013-08-18 21:44:00,69.3,48.8,30.05,SSE,168,0.0,0.0,48,0.00,,CLR,0.00,VWS V14.01,2013-08-19 02:44:00,
2013-08-18 21:45:00,69.4,48.9,30.05,SSE,168,0.0,0.0,48,0.00,,CLR,0.00,VWS V14.01,2013-08-19 02:45:00,
2013-08-18 21:46:00,69.4,48.9,30.05,SSE,168,0.0,0.0,48,0.00,,CLR,0.00,VWS V14.01,2013-08-19 02:46:00,
2013-08-18 21:48:00,69.6,48.0,30.05,SE,137,3.1,3.1,46,0.00,,CLR,0.00,VWS V14.01,2013-08-19 02:48:00,
2013-08-18 21:50:00,69.6,48.0,30.05,SE,137,0.0,0.0,46,0.00,,CLR,0.00,VWS V14.01,2013-08-19 02:50:00,
2013-08-18 21:51:00,69.6,48.0,30.05,SE,137,0.0,0.0,46,0.00,,CLR,0.00,VWS V14.01,2013-08-19 02:51:00,
2013-08-18 21:53:00,69.8,48.1,30.05,ESE,108,0.0,0.0,46,0.00,,CLR,0.00,VWS V14.01,2013-08-19 02:53:00,
2013-08-18 21:56:00,70.0,48.3,30.05,ESE,107,0.0,0.0,46,0.00,,CLR,0.00,VWS V14.01,2013-08-19 02:56:00,
2013-08-18 21:57:00,70.0,48.3,30.05,ESE,107,0.0,0.0,46,0.00,,CLR,0.00,VWS V14.01,2013-08-19 02:57:00,
2013-08-18 21:59:00,70.0,48.3,30.05,ESE,108,0.0,0.0,46,0.00,,CLR,0.00,VWS V14.01,2013-08-19 02:59:00,
2013-08-18 22:01:00,70.0,48.3,30.05,ESE,107,0.0,0.0,46,0.00,,CLR,0.00,VWS V14.01,2013-08-19 03:01:00,
2013-08-18 22:02:00,70.0,48.3,30.05,ESE,108,0.0,0.0,46,0.00,,CLR,0.00,VWS V14.01,2013-08-19 03:02:00,
2013-08-18 22:04:00,70.0,48.3,30.05,ESE,108,0.0,0.0,46,0.00,,CLR,0.00,VWS V14.01,2013-08-19 03:04:00,
2013-08-18 22:06:00,70.0,47.1,30.05,ESE,108,0.0,0.0,44,0.00,,CLR,0.00,VWS V14.01,2013-08-19 03:06:00,
2013-08-18 22:07:00,70.0,47.1,30.05,ESE,108,0.0,0.0,44,0.00,,CLR,0.00,VWS V14.01,2013-08-19 03:07:00,
2013-08-18 22:08:00,70.0,47.1,30.05,ESE,108,2.2,2.2,44,0.00,,CLR,0.00,VWS V14.01,2013-08-19 03:08:00,
2013-08-18 22:11:00,70.0,47.1,30.05,ESE,108,0.0,0.0,44,0.00,,CLR,0.00,VWS V14.01,2013-08-19 03:11:00,
2013-08-18 22:12:00,70.0,47.1,30.05,ESE,108,0.0,0.0,44,0.00,,CLR,0.00,VWS V14.01,2013-08-19 03:12:00,
2013-08-18 22:13:00,70.0,47.1,30.05,ESE,108,0.0,0.0,44,0.00,,CLR,0.00,VWS V14.01,2013-08-19 03:13:00,
2013-08-18 22:17:00,69.8,46.9,30.05,ESE,110,0.0,0.0,44,0.00,,CLR,0.00,VWS V14.01,2013-08-19 03:17:00,
2013-08-18 22:18:00,69.8,46.9,30.05,ESE,110,0.0,0.0,44,0.00,,CLR,0.00,VWS V14.01,2013-08-19 03:18:00,
2013-08-18 22:20:00,69.8,46.9,30.05,ESE,110,0.0,0.0,44,0.00,,CLR,0.00,VWS V14.01,2013-08-19 03:20:00,
2013-08-18 22:22:00,69.6,48.0,30.05,ESE,110,0.0,0.0,46,0.00,,CLR,0.00,VWS V14.01,2013-08-19 03:22:00,
2013-08-18 22:23:00,69.6,48.0,30.05,ESE,110,0.0,0.0,46,0.00,,CLR,0.00,VWS V14.01,2013-08-19 03:23:00,
2013-08-18 22:24:00,69.6,48.0,30.05,ESE,110,0.0,0.0,46,0.00,,CLR,0.00,VWS V14.01,2013-08-19 03:24:00,
2013-08-18 22:25:00,69.6,48.0,30.05,ESE,110,0.0,0.0,46,0.00,,CLR,0.00,VWS V14.01,2013-08-19 03:25:00,
2013-08-18 22:28:00,69.4,47.8,30.05,ESE,110,0.0,0.0,46,0.00,,CLR,0.00,VWS V14.01,2013-08-19 03:28:00,
2013-08-18 22:29:00,69.3,47.6,30.05,ESE,110,0.0,0.0,46,0.00,,CLR,0.00,VWS V14.01,2013-08-19 03:29:00,
2013-08-18 22:30:00,69.1,47.5,30.05,ESE,110,0.0,0.0,46,0.00,,CLR,0.00,VWS V14.01,2013-08-19 03:30:00,
2013-08-18 22:31:00,69.1,47.5,30.05,ESE,110,0.0,0.0,46,0.00,,CLR,0.00,VWS V14.01,2013-08-19 03:31:00,
2013-08-18 22:34:00,68.9,47.3,30.05,ESE,110,2.2,2.2,46,0.00,,CLR,0.00,VWS V14.01,2013-08-19 03:34:00,
2013-08-18 22:37:00,68.5,47.0,30.05,ESE,110,0.0,0.0,46,0.00,,CLR,0.00,VWS V14.01,2013-08-19 03:37:00,
2013-08-18 22:39:00,68.4,47.9,30.05,ESE,109,0.0,0.0,48,0.00,,CLR,0.00,VWS V14.01,2013-08-19 03:39:00,
2013-08-18 22:40:00,68.4,47.9,30.05,ESE,109,0.0,0.0,48,0.00,,CLR,0.00,VWS V14.01,2013-08-19 03:40:00,
2013-08-18 22:42:00,68.4,47.9,30.05,ESE,109,0.0,0.0,48,0.00,,CLR,0.00,VWS V14.01,2013-08-19 03:42:00,
2013-08-18 22:43:00,68.4,47.9,30.05,ESE,109,0.0,0.0,48,0.00,,CLR,0.00,VWS V14.01,2013-08-19 03:43:00,
2013-08-18 22:44:00,68.4,47.9,30.05,ESE,109,0.0,0.0,48,0.00,,CLR,0.00,VWS V14.01,2013-08-19 03:44:00,
2013-08-18 22:45:00,68.4,47.9,30.05,ESE,109,0.0,0.0,48,0.00,,CLR,0.00,VWS V14.01,2013-08-19 03:45:00,
2013-08-18 22:48:00,68.4,47.9,30.05,ESE,109,0.0,0.0,48,0.00,,CLR,0.00,VWS V14.01,2013-08-19 03:48:00,
2013-08-18 22:49:00,68.4,47.9,30.05,ESE,109,0.0,0.0,48,0.00,,CLR,0.00,VWS V14.01,2013-08-19 03:49:00,
2013-08-18 22:50:00,68.4,47.9,30.05,ESE,109,0.0,0.0,48,0.00,,CLR,0.00,VWS V14.01,2013-08-19 03:50:00,
2013-08-18 22:51:00,68.4,47.9,30.05,ESE,109,0.0,0.0,48,0.00,,CLR,0.00,VWS V14.01,2013-08-19 03:51:00,
2013-08-18 22:53:00,68.4,47.9,30.05,ESE,111,2.2,2.2,48,0.00,,CLR,0.00,VWS V14.01,2013-08-19 03:53:00,
2013-08-18 22:54:00,68.5,48.1,30.05,ESE,111,0.0,0.0,48,0.00,,CLR,0.00,VWS V14.01,2013-08-19 03:54:00,
2013-08-18 22:56:00,68.5,48.1,30.05,ESE,111,0.0,0.0,48,0.00,,CLR,0.00,VWS V14.01,2013-08-19 03:56:00,
2013-08-18 22:58:00,68.5,48.1,30.05,ESE,112,0.0,0.0,48,0.00,,CLR,0.00,VWS V14.01,2013-08-19 03:58:00,
2013-08-18 22:59:00,68.5,48.1,30.05,ESE,112,0.0,0.0,48,0.00,,CLR,0.00,VWS V14.01,2013-08-19 03:59:00,
2013-08-18 23:01:00,68.5,48.1,30.05,ESE,112,2.7,2.7,48,0.00,,CLR,0.00,VWS V14.01,2013-08-19 04:01:00,
2013-08-18 23:03:00,68.5,48.1,30.05,ESE,112,2.2,2.2,48,0.00,,CLR,0.00,VWS V14.01,2013-08-19 04:03:00,
2013-08-18 23:05:00,68.5,48.1,30.05,ESE,112,0.0,3.1,48,0.00,,CLR,0.00,VWS V14.01,2013-08-19 04:05:00,
2013-08-18 23:06:00,68.5,48.1,30.05,ESE,112,0.0,0.0,48,0.00,,CLR,0.00,VWS V14.01,2013-08-19 04:06:00,
2013-08-18 23:07:00,68.7,48.3,30.05,ESE,112,0.0,0.0,48,0.00,,CLR,0.00,VWS V14.01,2013-08-19 04:07:00,
2013-08-18 23:09:00,68.7,48.3,30.05,ESE,112,0.0,2.2,48,0.00,,CLR,0.00,VWS V14.01,2013-08-19 04:09:00,
2013-08-18 23:10:00,68.7,48.3,30.05,ESE,112,0.0,0.0,48,0.00,,CLR,0.00,VWS V14.01,2013-08-19 04:10:00,
2013-08-18 23:11:00,68.7,48.3,30.05,ESE,112,0.0,0.0,48,0.00,,CLR,0.00,VWS V14.01,2013-08-19 04:11:00,
2013-08-18 23:13:00,68.7,48.3,30.05,ESE,112,0.0,0.0,48,0.00,,CLR,0.00,VWS V14.01,2013-08-19 04:13:00,
2013-08-18 23:15:00,68.7,48.3,30.05,ESE,112,0.0,0.0,48,0.00,,CLR,0.00,VWS V14.01,2013-08-19 04:15:00,
2013-08-18 23:17:00,68.7,47.1,30.05,ESE,113,0.0,2.7,46,0.00,,CLR,0.00,VWS V14.01,2013-08-19 04:17:00,
2013-08-18 23:18:00,68.7,47.1,30.05,ESE,113,0.0,0.0,46,0.00,,CLR,0.00,VWS V14.01,2013-08-19 04:18:00,
2013-08-18 23:20:00,68.7,47.1,30.05,SE,129,0.0,0.0,46,0.00,,CLR,0.00,VWS V14.01,2013-08-19 04:20:00,
2013-08-18 23:22:00,68.7,47.1,30.05,SE,129,0.0,0.0,46,0.00,,CLR,0.00,VWS V14.01,2013-08-19 04:22:00,
2013-08-18 23:24:00,68.7,47.1,30.05,SE,129,0.0,0.0,46,0.00,,CLR,0.00,VWS V14.01,2013-08-19 04:24:00,
2013-08-18 23:26:00,68.7,47.1,30.05,SE,125,0.0,0.0,46,0.00,,CLR,0.00,VWS V14.01,2013-08-19 04:26:00,
2013-08-18 23:27:00,68.7,47.1,30.05,SE,125,0.0,0.0,46,0.00,,CLR,0.00,VWS V14.01,2013-08-19 04:27:00,
2013-08-18 23:28:00,68.7,47.1,30.05,SE,126,0.0,0.0,46,0.00,,CLR,0.00,VWS V14.01,2013-08-19 04:28:00,
2013-08-18 23:30:00,68.5,47.0,30.05,SE,126,0.0,0.0,46,0.00,,CLR,0.00,VWS V14.01,2013-08-19 04:30:00,
2013-08-18 23:31:00,68.5,47.0,30.05,SE,126,0.0,0.0,46,0.00,,CLR,0.00,VWS V14.01,2013-08-19 04:31:00,
2013-08-18 23:33:00,68.7,47.1,30.05,SE,126,0.0,2.7,46,0.00,,CLR,0.00,VWS V14.01,2013-08-19 04:33:00,
2013-08-18 23:35:00,68.5,47.0,30.05,SE,126,0.0,0.0,46,0.00,,CLR,0.00,VWS V14.01,2013-08-19 04:35:00,
2013-08-18 23:36:00,68.5,47.0,30.05,SE,126,0.0,0.0,46,0.00,,CLR,0.00,VWS V14.01,2013-08-19 04:36:00,
2013-08-18 23:38:00,68.4,46.8,30.05,SE,132,0.0,0.0,46,0.00,,CLR,0.00,VWS V14.01,2013-08-19 04:38:00,
2013-08-18 23:39:00,68.4,47.9,30.05,SE,132,0.0,2.7,48,0.00,,CLR,0.00,VWS V14.01,2013-08-19 04:39:00,
2013-08-18 23:41:00,68.2,47.8,30.05,SE,133,0.0,3.1,48,0.00,,CLR,0.00,VWS V14.01,2013-08-19 04:41:00,
2013-08-18 23:42:00,68.2,47.8,30.05,SE,133,0.0,0.0,48,0.00,,CLR,0.00,VWS V14.01,2013-08-19 04:42:00,
2013-08-18 23:43:00,68.2,47.8,30.05,SE,133,2.2,2.2,48,0.00,,CLR,0.00,VWS V14.01,2013-08-19 04:43:00,
2013-08-18 23:45:00,68.2,47.8,30.05,SE,133,0.0,0.0,48,0.00,,CLR,0.00,VWS V14.01,2013-08-19 04:45:00,
2013-08-18 23:46:00,68.0,47.6,30.05,SE,133,0.0,0.0,48,0.00,,CLR,0.00,VWS V14.01,2013-08-19 04:46:00,
2013-08-18 23:47:00,68.0,47.6,30.05,SE,133,0.0,0.0,48,0.00,,CLR,0.00,VWS V14.01,2013-08-19 04:47:00,
2013-08-18 23:48:00,68.0,47.6,30.05,SE,133,0.0,0.0,48,0.00,,CLR,0.00,VWS V14.01,2013-08-19 04:48:00,
2013-08-18 23:49:00,67.8,48.5,30.05,SE,133,0.0,0.0,50,0.00,,CLR,0.00,VWS V14.01,2013-08-19 04:49:00,
2013-08-18 23:50:00,67.8,48.5,30.05,SE,133,0.0,0.0,50,0.00,,CLR,0.00,VWS V14.01,2013-08-19 04:50:00,
2013-08-18 23:51:00,67.8,48.5,30.05,SE,130,0.0,2.2,50,0.00,,CLR,0.00,VWS V14.01,2013-08-19 04:51:00,
2013-08-18 23:53:00,68.0,48.7,30.05,SE,131,0.0,0.0,50,0.00,,CLR,0.00,VWS V14.01,2013-08-19 04:53:00,
2013-08-18 23:55:00,68.0,47.6,30.05,SE,130,0.0,0.0,48,0.00,,CLR,0.00,VWS V14.01,2013-08-19 04:55:00,
2013-08-18 23:56:00,68.0,47.6,30.05,SE,131,0.0,0.0,48,0.00,,CLR,0.00,VWS V14.01,2013-08-19 04:56:00,
2013-08-18 23:58:00,68.0,47.6,30.05,SE,130,0.0,0.0,48,0.00,,CLR,0.00,VWS V14.01,2013-08-19 04:58:00,